GFSSE_850_thetae_069.txt.gz
Theta_e
343 338 339 337 328 343 328 319 313 311 314 321 334 337 339 335 339 339 338 336 339 339 338 339 337 340 336 337 340 336 331 331 329 333 341 338 322 318 319 319 335 340 339
341 343 331 332 339 343 323 318 317 311 310 316 319 325 334 331 328 334 336 338 337 338 338 338 338 337 339 336 337 331 335 332 327 336 340 338 324 319 321 320 318 336 340
340 342 341 334 336 322 320 320 320 314 310 311 312 313 318 320 315 324 322 327 337 337 335 333 331 332 332 332 331 331 335 334 334 336 338 338 336 320 317 320 324 336 337
340 340 342 337 327 322 320 321 321 318 315 312 311 311 311 310 311 313 313 315 324 333 334 335 338 335 333 332 333 334 335 335 337 338 339 337 338 326 319 320 320 325 327
339 340 336 337 329 326 325 324 323 322 321 319 316 314 312 311 310 309 309 310 315 323 328 329 333 335 335 333 332 334 334 335 339 339 340 337 339 333 329 318 320 322 320
340 342 326 332 328 328 327 327 326 328 328 327 325 321 319 317 313 310 310 309 309 310 313 318 321 325 330 332 332 332 333 336 339 338 337 337 337 332 333 325 324 320 323
340 341 331 328 326 326 326 326 323 323 326 325 326 325 324 326 322 315 319 321 320 314 310 309 309 310 314 318 325 326 329 334 334 337 337 336 337 331 333 332 324 322 323
341 341 339 328 335 336 336 340 334 332 335 337 338 338 331 329 329 329 328 327 328 328 326 322 318 312 310 311 313 317 321 327 338 337 336 336 334 327 331 333 331 324 321
341 341 342 341 341 340 340 339 339 337 338 339 339 338 338 339 336 335 338 335 333 335 333 333 332 330 328 322 315 312 312 315 319 335 333 336 336 323 327 335 332 332 323
339 340 342 341 342 340 341 338 339 339 339 339 338 337 337 336 336 337 336 336 334 333 332 332 333 334 332 332 332 331 328 320 331 329 333 333 328 318 322 332 335 333 331
339 338 342 342 342 341 338 338 339 338 338 338 335 333 331 329 332 333 333 332 333 331 332 332 333 333 332 332 332 331 332 331 330 324 324 328 321 314 317 321 333 336 333
339 339 342 342 343 340 336 338 337 336 332 324 324 321 320 325 329 328 328 329 329 328 328 328 328 328 327 327 329 330 331 331 332 331 328 326 324 315 315 317 325 332 334
339 341 340 339 340 337 332 331 325 323 320 316 314 314 313 312 310 311 310 309 310 309 310 309 311 312 313 316 319 320 323 325 327 330 331 330 330 330 325 319 316 324 333
341 341 340 339 338 330 326 324 319 315 312 310 308 309 309 309 308 308 308 306 306 306 306 307 307 307 308 309 309 309 310 314 319 323 327 327 327 329 330 330 325 317 322
339 336 334 332 328 325 320 315 312 310 309 308 306 306 308 308 308 308 307 307 306 306 306 306 307 307 307 308 308 308 309 309 310 310 314 317 313 321 328 328 329 328 320
333 329 329 325 320 316 313 311 309 308 306 305 306 307 307 308 308 307 307 307 306 306 305 305 306 306 306 307 307 307 307 308 308 309 309 310 309 306 307 321 328 328 328
327 321 318 315 313 312 310 309 306 306 307 306 307 307 308 308 307 307 307 307 306 306 306 305 305 304 305 306 306 306 306 307 307 308 308 309 309 309 306 305 305 320 328
319 315 313 311 311 311 310 308 308 307 307 307 307 307 307 307 307 307 307 306 306 306 306 306 306 305 305 305 306 306 306 306 306 307 307 307 307 308 306 305 305 304 308
315 313 311 311 311 310 308 308 308 308 308 307 308 307 307 307 306 307 306 306 306 306 306 306 306 305 305 305 305 305 305 305 307 307 307 307 307 307 307 306 306 305 305
313 312 312 311 309 308 308 308 308 308 308 308 308 307 307 307 306 306 306 306 305 305 305 305 305 305 305 305 305 305 305 305 305 306 306 307 308 308 308 311 310 307 305
312 312 311 310 309 309 309 309 309 309 309 308 307 306 306 306 305 305 305 305 305 305 304 305 305 304 304 304 304 304 304 304 306 307 306 307 309 309 309 309 311 310 309
312 312 311 310 309 309 310 310 310 310 310 309 309 306 306 306 305 305 305 305 304 304 304 304 304 303 304 304 304 303 304 304 305 307 308 305 304 306 305 307 309 310 309
312 311 311 310 310 309 310 310 310 309 308 307 307 307 307 306 305 305 304 304 304 303 303 303 303 303 302 302 302 303 303 304 303 303 303 304 304 305 304 304 305 306 306
312 311 311 310 310 310 310 309 309 310 310 311 310 309 308 306 305 304 304 303 303 303 303 303 302 302 301 301 301 302 302 302 302 302 302 302 303 303 303 303 303 303 304
312 312 311 310 310 309 309 309 309 310 311 310 309 308 306 305 305 304 304 303 303 303 302 301 301 301 300 300 300 300 301 301 301 301 302 302 302 302 303 303 303 303 304
312 312 311 310 309 309 309 309 309 309 310 310 309 307 306 305 305 304 303 303 302 301 301 300 300 300 300 300 299 299 299 300 300 300 301 301 301 301 301 301 302 302 302

GFSSE_850_thetae_072.txt.gz
Theta_e
344 328 343 329 333 333 322 315 311 311 316 325 332 337 338 330 336 339 338 337 338 339 339 337 338 337 339 339 331 334 328 333 336 338 337 335 316 318 319 334 339 340 338
344 330 326 334 338 334 319 318 313 310 312 315 317 322 328 318 324 331 332 335 337 337 334 333 336 337 331 330 330 334 332 336 337 338 340 338 328 316 320 336 336 339 339
344 336 333 337 323 320 319 319 317 312 310 311 311 313 314 312 314 319 319 325 335 335 336 336 333 331 331 330 332 332 333 334 339 338 339 338 332 318 318 322 329 335 339
341 345 333 334 323 319 319 320 319 317 315 312 311 311 310 310 310 311 310 312 324 331 331 334 337 337 334 331 330 332 334 338 338 339 334 338 334 328 318 318 321 319 331
341 342 340 336 326 325 323 323 322 322 321 319 317 315 313 311 310 309 309 310 314 317 322 325 328 331 335 333 331 331 335 338 337 337 336 336 335 332 325 323 318 321 314
340 336 327 327 325 326 326 325 326 327 327 326 324 322 323 319 314 312 314 313 311 309 309 310 310 313 316 320 325 328 330 335 336 336 338 335 336 328 332 325 323 321 320
342 337 326 324 324 324 324 324 322 324 326 333 332 327 326 326 323 324 326 325 326 324 320 318 316 312 310 311 313 318 323 333 336 336 335 335 335 323 333 331 324 322 322
340 339 335 329 334 335 340 337 331 334 336 337 338 338 336 333 331 331 335 333 334 333 331 331 331 331 329 324 318 314 313 317 336 335 334 335 336 331 326 333 330 325 321
340 342 339 337 339 339 338 337 337 336 338 338 338 337 337 337 337 336 336 336 335 334 332 332 332 334 332 332 332 332 330 318 322 333 330 334 333 330 320 330 333 331 326
339 341 340 342 340 339 339 338 338 338 338 338 337 335 334 334 332 336 334 334 333 331 332 332 332 333 332 332 331 331 332 330 331 324 325 332 332 323 315 323 333 335 332
338 343 342 340 339 339 338 337 337 337 335 332 331 327 327 328 329 329 328 329 330 328 328 328 327 328 329 329 329 329 331 332 332 331 328 324 324 319 314 317 322 333 335
338 342 342 339 338 338 336 337 336 334 327 324 322 320 319 321 320 318 318 321 320 318 318 314 313 317 316 317 323 323 324 325 327 329 331 331 330 329 322 317 317 321 331
338 341 337 339 338 336 335 330 324 322 320 317 312 312 312 309 308 307 306 305 306 306 306 307 307 307 307 307 308 309 311 315 320 325 326 328 328 327 329 329 325 317 320
339 339 341 340 338 335 329 325 322 316 312 310 309 308 307 307 307 308 308 308 308 307 307 307 307 307 306 307 307 308 308 309 309 312 316 321 322 319 322 328 329 329 321
340 339 338 338 334 329 324 321 316 311 310 307 305 307 308 308 308 308 308 307 307 307 307 306 306 306 306 306 306 306 307 307 308 308 309 309 308 308 306 308 325 327 328
337 336 335 331 326 321 316 313 311 309 307 305 307 308 308 308 308 308 308 307 307 307 307 307 307 307 307 306 306 306 306 306 306 307 307 308 308 308 307 306 305 312 324
335 331 328 323 318 314 312 311 309 306 305 306 307 308 308 308 308 308 308 307 307 307 307 307 307 307 306 306 306 306 306 306 306 306 306 307 307 307 307 307 306 306 305
329 323 319 315 313 312 311 308 306 306 306 307 307 307 308 308 307 307 307 307 307 307 307 306 306 306 306 305 305 304 304 304 305 306 306 306 306 306 306 306 306 305 305
321 317 315 312 312 311 309 308 307 307 308 307 307 307 307 307 307 307 307 307 307 306 306 306 305 305 305 305 304 303 303 303 304 304 305 305 306 307 307 307 307 306 305
317 314 313 311 311 310 308 308 308 308 308 308 308 307 307 307 307 306 306 306 306 306 305 305 305 305 304 304 303 303 303 303 304 306 307 307 306 308 308 308 308 308 308
314 313 312 311 310 309 308 308 308 309 309 308 308 307 306 306 306 306 306 305 305 305 305 304 304 304 304 303 302 302 302 304 303 305 305 305 307 307 309 308 309 309 309
313 312 312 311 309 309 309 309 310 310 310 310 309 309 307 306 306 306 305 305 305 304 304 304 304 303 303 302 301 301 303 302 305 305 307 308 307 305 304 304 305 307 308
313 312 312 311 310 309 309 310 310 310 310 310 309 308 309 308 307 306 305 305 305 304 304 304 303 303 302 302 301 301 302 302 302 301 301 301 301 302 304 304 305 304 305
313 312 312 311 310 310 309 310 310 309 309 310 311 310 309 308 307 306 305 305 304 304 303 303 302 302 301 301 300 300 300 301 301 301 300 300 300 300 300 301 302 303 303
313 312 312 311 311 310 310 309 309 309 310 310 310 310 309 308 306 305 305 305 304 303 303 302 301 301 300 300 299 299 299 299 300 300 300 300 300 301 302 302 302 302 302
313 312 312 311 310 310 309 309 309 309 309 309 310 310 308 307 306 305 305 304 303 303 302 301 300 299 298 298 298 298 298 299 299 299 300 300 300 300 300 300 300 301 301

GFSSE_850_thetae_075.txt.gz
Theta_e
337 325 339 326 339 322 317 313 310 314 319 325 331 333 325 331 337 338 336 338 338 338 338 338 337 337 329 329 332 333 336 338 339 338 336 329 316 329 334 338 339 338 338
342 328 333 331 340 325 318 315 310 311 313 315 317 318 318 317 324 327 327 334 336 334 331 330 331 329 328 330 332 333 337 338 337 338 335 332 316 316 327 335 339 340 338
341 331 333 332 319 319 319 317 314 311 311 311 311 311 310 312 315 315 317 324 333 333 336 338 336 333 331 329 332 334 335 336 335 335 335 331 330 315 316 319 331 340 339
341 332 331 322 319 318 319 319 317 316 314 313 312 311 310 309 309 309 310 315 323 326 327 330 334 334 332 330 331 334 336 336 337 336 334 333 331 324 318 316 318 326 338
341 341 336 328 323 322 321 321 321 321 320 319 318 318 315 312 311 310 310 310 310 312 314 315 315 317 317 325 328 333 335 335 336 336 335 334 333 329 321 318 319 314 325
341 335 333 326 324 324 324 324 324 325 325 324 323 323 324 318 316 319 321 322 319 314 313 312 311 310 310 311 315 324 333 335 336 335 334 334 333 324 329 320 318 320 319
339 332 322 322 322 323 323 321 323 327 336 336 334 330 328 328 328 331 333 334 331 329 330 330 330 328 324 320 314 313 330 336 335 334 334 335 334 329 333 328 321 319 321
339 332 325 329 333 339 335 330 335 336 337 338 337 337 338 337 335 336 334 335 334 333 332 332 333 332 332 332 331 330 319 324 334 334 333 335 334 331 319 335 328 322 319
335 338 335 337 338 337 338 337 336 337 337 337 337 336 335 336 335 336 335 334 333 332 332 332 332 332 331 331 331 331 328 328 326 330 331 333 332 331 317 325 335 330 324
338 341 337 333 333 337 337 338 336 336 336 336 334 333 331 330 331 334 331 331 330 328 329 329 327 330 329 329 328 332 332 332 331 328 325 324 325 324 316 317 328 336 332
341 341 340 337 335 335 336 336 335 336 333 329 327 325 323 327 327 326 325 325 325 325 323 321 323 323 324 325 326 327 329 330 328 329 330 331 329 329 322 315 317 326 335
341 342 340 338 336 336 335 336 336 333 330 327 323 321 320 317 314 311 307 307 307 306 306 306 306 306 306 306 311 318 321 323 324 326 326 327 329 329 329 327 320 317 324
340 342 341 340 339 334 335 335 328 325 325 323 319 319 316 309 307 306 307 307 307 308 308 308 308 307 307 307 307 307 308 310 317 321 321 323 325 325 324 327 328 326 318
341 341 340 340 336 335 333 328 325 323 319 315 312 310 308 307 308 308 308 308 308 308 307 307 307 307 306 306 306 306 307 307 308 309 310 311 312 310 307 307 319 327 328
340 340 340 339 338 336 332 326 323 319 315 310 306 306 307 308 309 309 308 308 308 307 307 307 307 307 307 307 307 306 306 306 306 307 307 308 308 308 308 307 306 312 326
340 339 338 337 336 333 328 325 320 316 310 306 306 308 309 309 308 308 308 308 308 308 308 307 306 306 306 305 305 305 305 306 306 306 306 306 307 307 307 307 307 307 306
338 337 336 332 329 327 323 317 312 310 306 306 307 308 308 308 308 308 308 308 308 308 307 307 307 306 306 305 304 303 303 303 303 304 305 306 306 306 306 306 306 306 306
336 335 332 328 324 318 314 312 309 306 306 306 307 308 308 308 308 308 308 308 307 307 307 307 306 306 305 304 303 303 302 302 303 303 304 304 305 305 306 306 306 307 306
333 332 328 320 315 313 312 309 306 306 306 306 306 307 307 307 307 307 307 307 307 307 307 306 306 305 305 304 303 302 302 302 303 304 305 306 306 307 307 308 307 307 306
328 325 321 314 312 311 311 308 308 307 308 307 307 307 307 307 307 307 307 307 307 306 306 305 305 305 304 303 303 302 303 303 303 304 305 306 306 307 308 308 308 308 308
319 318 315 312 311 311 309 308 308 307 307 308 307 307 307 307 307 307 306 306 306 306 305 305 304 304 304 303 302 302 302 302 303 303 304 305 306 307 308 308 304 304 305
317 314 313 312 311 310 309 308 309 309 310 310 309 309 309 308 307 306 306 306 305 305 305 304 304 303 303 302 301 301 301 301 304 302 303 305 304 307 306 303 303 305 305
314 313 312 312 310 309 309 309 310 310 310 310 309 310 309 309 310 309 308 306 306 305 305 304 304 303 302 302 301 301 301 301 300 301 300 300 300 300 299 299 301 303 304
314 312 312 311 310 310 309 309 310 310 310 310 309 311 311 310 310 309 307 306 305 305 304 304 303 302 302 301 300 299 299 300 300 300 299 298 298 298 298 299 300 300 300
313 312 312 311 311 310 310 310 309 309 309 309 310 310 310 310 309 308 306 305 305 305 304 303 303 302 301 300 299 298 298 298 298 299 299 297 297 297 298 298 298 298 301
313 312 312 311 311 310 310 310 309 309 309 308 309 310 310 309 308 306 305 305 304 304 303 303 302 301 299 298 298 298 297 297 297 297 298 298 297 297 297 298 298 298 298

GFSSE_850_thetae_078.txt.gz
Theta_e
342 330 337 330 333 319 314 310 312 318 326 331 329 323 330 336 338 335 338 338 338 337 337 338 329 327 331 332 334 337 338 336 337 332 327 314 322 334 338 338 337 337 338
332 330 337 331 339 319 316 311 311 313 314 316 316 317 314 324 326 326 330 334 338 331 334 335 331 329 331 332 332 333 336 332 335 333 331 327 314 320 335 340 340 337 336
331 329 326 329 322 318 317 313 311 310 311 311 310 310 311 313 314 314 320 329 331 333 337 336 335 331 328 332 333 335 336 336 332 335 333 328 324 315 317 328 338 338 337
336 328 333 319 318 318 318 317 315 314 313 313 312 311 310 309 309 309 313 319 321 322 324 325 324 324 328 330 333 333 334 336 335 335 333 331 326 320 315 317 322 337 338
336 333 331 322 320 319 319 319 320 320 319 319 320 318 314 313 313 312 310 309 309 310 310 310 310 311 316 326 332 334 335 335 334 333 333 331 325 328 318 317 315 321 334
340 337 334 326 323 323 323 324 325 324 323 323 324 324 320 319 322 324 326 325 323 323 322 319 317 314 311 313 322 333 335 335 332 334 333 332 331 325 324 317 318 319 318
338 325 324 322 322 322 321 323 325 334 335 334 333 332 331 331 334 335 336 333 332 332 332 332 331 330 329 323 315 330 335 335 331 333 333 333 332 325 330 326 318 318 321
336 326 322 326 326 326 324 330 335 337 337 337 337 337 337 336 336 335 335 334 333 332 331 332 332 332 331 331 330 320 318 331 334 333 332 332 331 330 316 333 328 320 318
335 334 331 336 336 336 336 335 336 336 336 336 336 335 334 335 335 335 334 332 331 330 331 331 331 331 331 329 331 330 330 328 326 327 326 328 328 325 319 319 334 331 324
335 337 334 334 332 333 334 335 335 335 335 334 331 331 329 329 330 331 329 328 327 326 327 326 327 328 327 328 330 331 331 331 330 329 330 330 327 328 323 315 321 335 332
338 340 337 333 333 335 334 334 334 333 331 329 328 326 321 325 325 323 323 323 322 319 316 314 315 319 320 323 325 327 328 329 328 327 329 329 329 330 329 322 316 318 332
339 340 340 335 334 334 335 333 333 332 330 328 326 323 319 316 311 307 306 306 306 306 306 307 307 307 307 307 309 315 321 322 321 322 321 321 325 327 326 327 326 318 318
338 340 341 337 336 336 334 333 331 329 326 325 322 319 318 309 307 307 307 307 307 307 307 307 307 307 307 307 307 307 307 309 314 315 315 317 319 320 318 317 324 328 323
339 340 341 339 338 334 332 332 330 329 323 318 315 312 310 307 307 308 308 307 307 307 307 307 307 307 307 307 307 307 306 306 307 308 309 309 309 308 308 307 306 316 327
340 341 341 340 336 334 333 332 329 327 319 313 311 308 306 307 308 308 308 307 308 308 308 307 306 306 306 305 305 305 305 306 306 306 306 307 307 308 307 307 307 306 312
341 341 339 339 337 334 333 329 328 323 315 310 306 307 308 308 308 308 308 308 308 308 307 307 307 306 306 305 304 303 303 303 303 305 306 306 306 306 306 306 307 306 307
341 340 339 338 336 332 329 325 323 317 310 306 306 308 308 308 308 308 308 308 308 307 307 307 307 306 306 305 303 303 302 302 302 303 303 304 305 306 306 306 306 306 306
339 339 337 335 332 329 323 317 313 310 307 306 307 308 308 308 308 308 308 308 307 307 307 307 307 306 306 305 304 303 302 303 302 302 302 303 304 304 305 306 307 307 307
338 336 333 331 326 321 316 312 310 307 306 306 306 307 307 307 307 307 307 307 307 307 307 307 306 306 306 305 305 304 302 303 303 304 305 305 306 306 306 307 307 308 308
335 334 330 323 320 317 313 311 308 306 306 306 306 307 307 307 306 307 307 307 307 307 306 306 306 306 305 304 304 303 303 302 302 302 302 305 305 306 307 307 308 307 306
331 329 326 323 319 316 312 311 308 307 307 307 307 307 307 307 307 307 306 306 306 306 306 305 305 305 305 303 302 303 303 302 302 303 303 304 305 305 306 306 306 305 304
329 325 321 317 314 313 311 310 308 308 307 308 309 309 309 309 308 308 307 307 307 306 305 305 305 304 303 303 302 301 301 301 302 303 301 301 302 303 303 305 303 301 303
324 320 316 314 313 311 310 309 308 309 309 309 309 309 309 309 309 309 310 309 308 306 305 305 305 304 303 302 302 301 300 300 299 300 299 300 300 300 299 299 299 299 300
319 315 314 313 312 311 310 309 309 309 310 310 310 309 309 310 310 310 309 308 307 306 305 305 304 303 303 302 301 300 299 299 299 298 298 298 297 298 298 298 298 298 298
315 314 313 312 311 311 310 310 309 309 309 310 309 309 309 310 310 309 308 307 305 305 305 304 303 303 302 301 300 299 298 298 298 297 298 297 297 296 297 297 297 297 297
313 312 312 311 311 310 310 309 309 309 309 309 309 308 308 309 309 308 307 306 305 304 304 303 302 302 301 300 298 297 297 297 297 297 297 297 296 296 296 296 297 297 298

GFSSE_850_thetae_084.txt.gz
Theta_e
340 338 333 331 325 314 320 332 337 338 328 329 332 337 336 337 338 338 337 336 335 334 329 330 330 328 332 334 337 331 331 329 326 321 315 329 337 338 340 336 338 339 338
339 340 331 331 323 314 312 314 320 320 317 319 319 326 329 329 328 337 338 337 335 335 334 329 330 330 334 335 335 335 335 332 329 324 320 314 321 335 336 337 337 339 338
337 335 335 329 331 316 311 311 312 312 311 311 310 312 316 315 314 319 325 327 336 337 336 333 328 328 331 334 333 334 334 333 331 328 321 319 315 316 333 336 337 337 337
329 329 333 327 323 316 313 311 311 311 311 311 310 309 309 309 310 314 317 318 320 320 318 318 326 328 329 331 332 333 332 333 332 330 324 321 317 316 315 332 335 337 337
326 327 326 318 317 316 315 315 316 316 317 317 316 314 313 312 310 309 310 310 309 309 309 310 315 325 328 329 330 332 331 331 332 329 330 320 325 319 316 315 325 333 337
326 331 321 318 318 318 318 319 321 321 322 322 320 320 323 329 331 323 319 320 321 322 320 316 312 313 319 327 331 331 332 331 330 328 329 328 318 327 320 316 318 318 329
330 330 328 321 320 320 322 323 324 329 331 332 333 333 337 337 337 335 329 330 331 331 330 329 329 325 317 316 327 331 332 331 331 328 329 328 325 317 329 326 317 318 317
328 328 323 322 321 321 323 333 335 335 335 337 337 337 337 335 335 335 333 332 331 331 331 331 331 331 330 325 319 326 332 332 330 325 326 325 325 321 314 331 332 320 318
327 321 322 322 321 324 335 337 335 334 337 335 335 335 334 334 334 333 332 330 329 329 330 330 330 330 328 329 328 328 325 326 325 326 328 327 328 328 320 315 325 333 323
325 324 328 330 327 334 337 335 336 336 336 330 327 328 329 329 330 330 329 328 326 324 325 326 326 327 327 327 328 329 329 330 329 328 329 329 329 329 328 324 316 319 334
328 328 334 334 333 333 334 335 334 335 329 327 324 323 322 323 324 324 324 323 321 316 314 314 316 317 318 320 322 323 324 326 326 327 327 327 327 326 326 326 327 318 319
332 332 335 334 334 334 334 333 331 329 328 326 322 320 318 316 313 312 312 308 306 307 307 307 307 307 307 307 307 308 311 316 319 320 321 322 322 322 321 320 321 326 322
334 334 335 334 334 334 334 332 331 329 328 324 319 317 315 309 306 306 306 307 307 307 307 307 306 306 306 306 306 306 306 306 307 309 312 314 315 315 314 311 309 312 322
336 335 336 335 335 335 334 333 330 328 328 321 316 314 311 307 307 307 307 307 307 307 306 306 306 306 305 305 304 303 303 304 305 306 306 307 307 307 308 308 308 307 307
337 336 337 337 335 335 335 333 329 327 326 318 314 312 309 306 308 307 307 307 307 307 307 307 306 306 306 306 306 305 303 303 303 303 303 305 306 306 306 307 307 307 307
338 338 338 338 336 336 333 332 328 327 325 317 312 310 307 307 308 307 307 307 307 307 307 307 307 307 307 307 307 306 306 304 303 303 302 302 303 305 305 306 306 307 308
338 339 338 339 337 336 333 331 329 325 321 315 310 307 306 308 307 307 307 307 307 307 307 307 307 307 307 307 307 307 306 305 304 303 303 303 302 303 304 305 305 305 310
338 339 338 337 337 335 334 329 326 322 316 311 307 306 307 308 307 307 307 307 307 307 307 307 307 307 307 307 307 307 306 305 304 302 302 304 304 304 303 304 305 305 306
337 338 338 337 335 333 333 327 322 316 312 309 306 307 308 308 307 307 307 307 307 307 307 307 306 307 306 306 306 306 306 305 304 303 302 302 304 305 305 305 306 306 306
339 338 337 336 333 334 329 323 317 311 309 306 306 307 307 307 307 307 306 306 306 306 306 306 307 306 306 306 306 306 305 305 304 303 301 301 302 303 304 305 305 306 307
338 338 337 334 332 333 327 321 314 311 308 306 306 306 306 306 306 306 306 307 308 308 307 307 308 307 306 305 305 306 305 304 303 301 302 302 301 300 300 302 303 304 305
336 337 336 333 333 331 324 317 312 309 307 306 306 307 307 307 307 308 308 308 308 309 308 308 308 307 306 305 305 304 303 303 302 302 301 301 301 300 300 300 300 300 300
335 336 334 332 332 325 317 312 310 308 307 307 307 307 309 309 309 309 309 309 309 309 309 308 307 306 305 304 304 303 302 301 301 301 301 300 300 299 299 299 299 299 298
337 335 333 331 324 316 312 311 310 309 309 309 309 309 309 309 309 309 308 309 309 309 308 307 306 305 304 303 303 302 301 300 299 298 298 299 299 299 299 299 298 298 298
337 334 330 324 316 312 311 310 309 309 309 309 309 309 309 309 309 309 309 309 309 308 307 306 305 304 303 302 302 301 300 299 297 297 297 297 297 298 298 298 298 298 297
332 328 322 317 312 311 310 310 309 308 308 308 309 309 309 309 308 308 308 309 308 308 306 305 304 303 302 301 300 299 299 297 296 296 296 296 295 296 297 297 297 296 296

GFSSE_850_thetae_087.txt.gz
Theta_e
336 336 330 330 317 320 333 335 339 334 331 335 339 337 338 338 338 336 336 335 334 331 334 338 340 338 337 338 336 334 329 323 320 316 318 334 338 339 338 339 340 340 337
333 333 326 331 322 313 317 326 324 318 322 323 329 331 333 331 337 339 337 335 333 334 334 337 336 336 335 333 334 334 332 327 322 319 314 314 327 339 338 339 339 339 338
337 333 333 329 321 315 311 312 314 312 313 314 312 316 320 317 318 324 327 332 335 337 333 328 328 323 331 332 333 333 333 330 326 318 319 315 315 322 337 338 338 338 338
337 329 334 329 329 314 311 310 310 310 310 309 309 310 309 310 313 317 318 319 320 319 315 317 323 325 327 329 332 331 331 328 327 327 317 322 326 315 320 333 338 337 337
330 330 331 327 318 315 314 314 314 315 316 315 313 312 311 310 310 311 311 310 309 309 309 311 318 322 324 327 329 329 329 327 324 328 322 319 333 318 316 316 327 336 338
325 329 320 317 317 316 316 317 319 320 321 320 319 320 324 327 323 317 317 319 320 320 318 315 313 313 318 325 329 330 330 329 328 325 326 321 319 332 321 316 317 320 334
328 327 321 318 318 318 319 321 322 327 329 329 329 337 337 338 336 329 328 329 330 330 329 329 328 327 319 319 328 331 331 329 329 324 325 326 320 318 332 329 318 317 316
328 327 324 320 320 321 322 329 332 334 336 338 338 338 336 335 335 334 332 331 331 331 331 331 330 330 329 324 321 326 330 330 327 325 325 325 326 318 316 331 333 321 318
327 324 322 321 321 323 334 335 334 334 336 335 336 335 335 334 334 333 331 330 329 329 329 329 329 328 327 328 329 329 328 326 325 326 328 329 329 328 321 315 326 334 322
325 322 323 322 323 333 337 336 337 336 334 335 327 327 328 329 330 330 329 328 325 324 325 326 326 326 326 326 326 327 327 328 329 328 329 328 328 328 328 326 318 317 335
325 324 326 325 329 336 337 336 335 334 330 327 324 323 323 323 324 325 324 323 321 317 316 315 315 315 314 315 316 318 319 319 321 322 323 323 322 323 323 322 325 324 317
326 328 332 330 334 337 339 335 334 330 328 326 321 318 318 317 316 316 316 310 306 307 307 307 307 307 307 307 307 307 307 308 311 313 315 316 317 317 317 314 314 318 325
330 331 334 333 335 336 333 331 330 329 328 325 319 317 314 309 307 306 306 307 307 307 307 307 306 306 305 305 305 304 304 305 305 306 307 307 308 308 309 309 308 308 311
332 333 335 333 334 334 332 331 331 328 327 323 317 314 311 307 306 307 307 307 307 306 306 306 306 306 306 306 306 306 304 304 303 303 303 304 306 306 306 307 308 308 307
334 333 335 335 333 334 334 333 331 327 326 321 315 312 309 306 307 307 307 307 307 307 307 307 307 307 307 307 307 307 307 306 305 304 303 303 303 304 305 306 306 307 308
336 335 335 336 334 335 335 333 331 326 324 319 313 311 308 307 307 307 307 307 307 307 307 307 307 307 307 307 307 307 307 306 306 304 303 303 303 303 303 305 305 306 310
337 337 336 337 336 335 335 333 331 326 324 318 312 310 306 307 307 307 307 307 307 307 307 307 307 307 307 307 307 307 306 306 305 304 303 303 303 303 303 303 305 306 310
337 337 337 337 338 336 334 333 330 324 322 316 311 308 307 307 307 307 307 307 307 307 307 307 306 306 307 307 307 307 307 306 305 304 304 302 302 304 304 304 304 305 305
333 337 338 338 337 334 333 333 327 324 319 313 309 306 307 307 307 307 307 307 307 306 306 306 306 307 308 308 307 307 307 306 305 305 304 302 302 303 304 305 305 306 306
336 338 338 338 336 333 332 331 326 321 315 310 307 306 307 307 307 307 307 306 306 306 307 306 307 308 308 308 307 307 306 306 305 304 302 302 301 302 302 301 302 304 305
336 337 337 337 336 333 332 330 324 318 312 309 306 307 307 307 307 306 306 306 307 308 309 309 308 308 308 308 307 307 307 306 305 302 302 303 302 302 301 301 300 300 302
337 336 337 336 333 331 332 328 320 313 310 307 306 306 306 306 306 306 307 308 308 308 309 309 308 308 307 307 306 306 305 305 302 302 304 303 302 301 300 300 300 299 299
337 336 336 335 333 331 330 323 315 310 308 307 306 306 307 307 307 308 308 308 308 308 308 308 308 307 306 306 305 304 304 304 303 303 302 302 301 301 300 300 299 299 299
331 335 335 332 331 330 324 318 312 310 309 308 308 307 307 308 308 308 308 308 308 308 308 307 307 307 306 305 304 303 303 302 301 301 300 300 300 300 299 299 298 298 298
331 334 335 332 330 323 318 314 310 309 309 308 308 308 308 309 309 309 309 308 308 308 308 308 307 306 305 303 303 302 301 300 300 299 299 299 297 298 298 298 298 298 297
333 337 334 330 324 319 314 311 310 309 308 308 308 308 309 309 309 309 308 308 308 308 308 307 306 304 303 302 301 301 300 299 299 298 298 297 297 296 296 297 297 297 296

GFSSE_850_thetae_090.txt.gz
Theta_e
339 335 327 323 324 336 337 333 338 334 337 341 341 338 338 338 337 336 336 335 334 337 337 339 337 337 335 337 333 330 323 318 315 315 328 337 339 339 340 341 342 342 335
340 341 327 327 318 325 332 332 325 324 327 330 330 335 334 335 339 338 337 335 334 334 337 336 330 334 332 333 332 331 327 321 319 315 328 325 337 340 339 338 339 338 338
342 340 333 331 318 316 318 320 317 314 317 317 320 325 326 324 327 335 331 334 333 334 331 324 322 327 331 332 332 331 326 326 318 327 331 331 323 334 338 339 338 338 339
342 339 342 328 320 314 311 312 311 310 310 310 311 312 312 311 313 316 317 319 320 317 314 315 319 323 326 329 330 329 325 324 327 332 335 333 330 316 329 336 338 338 339
341 340 339 328 322 313 311 310 311 312 312 312 311 310 311 311 311 312 311 310 309 310 311 314 318 320 324 327 330 331 327 326 327 334 333 336 335 318 316 321 333 337 338
338 339 329 326 316 314 314 315 317 318 318 316 317 318 320 320 318 316 316 318 320 321 319 317 315 315 322 327 329 329 329 327 333 334 335 332 334 333 322 317 317 330 337
338 338 323 317 316 316 317 320 321 325 324 325 332 338 339 337 334 332 332 328 329 329 330 330 330 326 320 327 330 330 330 329 332 332 334 333 320 327 333 330 317 317 324
339 338 333 318 318 319 321 324 330 335 337 338 338 338 337 337 335 333 332 331 331 331 331 330 330 329 328 325 324 325 325 327 332 333 335 333 327 319 317 332 333 318 318
338 337 335 333 321 322 329 333 334 337 336 336 336 336 335 334 333 332 332 331 330 329 329 329 328 327 326 327 328 329 329 329 330 331 329 328 328 328 325 317 320 335 323
336 337 336 336 336 338 336 335 336 335 334 333 329 329 330 331 332 330 329 327 325 324 325 325 325 325 324 323 322 322 323 323 323 325 324 324 323 323 323 325 324 317 334
337 339 337 337 338 340 338 336 335 334 333 328 324 323 326 328 327 326 325 323 321 318 318 316 313 311 310 309 310 312 313 314 316 317 317 318 318 318 316 315 317 323 320
337 338 337 337 338 341 340 338 338 336 334 329 321 319 321 323 323 321 318 311 306 306 307 307 307 307 307 306 306 306 306 306 306 307 307 308 309 310 311 310 310 310 316
337 338 338 338 339 342 340 340 334 335 328 326 319 317 316 310 309 309 306 306 307 307 307 306 306 305 305 305 305 305 305 304 303 303 303 304 305 306 307 307 308 308 308
337 338 339 339 340 341 340 339 336 333 327 324 318 315 311 307 306 306 307 307 307 306 306 306 306 307 307 307 307 307 307 306 305 304 303 303 303 304 305 306 307 308 308
338 338 340 334 340 341 337 337 335 331 327 323 316 313 309 306 307 307 307 307 306 307 306 307 307 307 307 308 308 308 308 307 306 305 304 303 303 303 303 305 306 306 311
338 338 340 333 333 340 337 334 333 329 326 322 315 312 308 307 307 307 307 307 307 307 307 307 307 307 307 307 308 308 308 308 306 306 305 304 303 303 303 303 305 315 318
339 338 339 335 334 338 334 334 333 329 325 320 314 311 308 307 307 307 307 307 307 307 307 307 307 307 307 307 308 307 308 307 307 306 306 305 303 303 303 304 304 305 307
340 338 336 336 336 335 335 334 332 327 324 319 313 310 307 307 307 307 307 307 307 307 307 307 307 307 308 308 308 308 307 307 307 306 306 305 303 302 303 304 305 305 305
341 341 340 335 336 336 335 332 333 326 323 318 312 309 306 307 307 307 307 307 307 307 306 306 306 307 308 309 308 308 307 307 307 306 305 303 303 303 302 303 302 302 303
331 339 339 335 336 336 333 333 332 326 323 316 311 307 306 307 307 307 307 307 306 306 307 308 307 308 309 309 308 308 308 307 307 306 304 303 305 304 303 302 301 301 301
333 334 338 338 335 335 333 332 331 326 321 314 310 306 307 307 307 307 307 306 306 307 308 308 309 309 309 308 308 309 309 307 305 304 302 305 304 303 303 302 301 301 300
332 336 337 337 335 334 332 332 329 325 318 312 309 306 307 307 307 306 306 306 307 308 308 308 309 308 308 308 308 308 309 308 306 304 304 305 304 303 302 302 301 300 300
336 336 336 336 334 333 332 331 327 319 313 310 307 306 306 306 306 307 307 307 308 308 308 308 308 308 308 308 306 307 308 308 307 306 305 304 303 302 302 301 301 300 300
337 336 335 335 334 332 332 329 321 314 311 309 307 306 306 307 307 308 308 308 308 308 308 307 307 307 307 307 307 305 305 305 305 305 304 303 303 302 301 301 300 300 299
333 334 334 335 334 332 330 324 318 311 310 308 308 307 307 308 308 309 308 308 308 308 307 307 307 307 306 306 306 306 304 304 303 303 302 302 301 301 300 300 299 299 299
327 331 334 336 333 330 324 320 315 310 309 308 308 308 308 308 309 309 309 309 308 309 308 308 308 306 305 304 304 303 303 303 303 302 302 301 300 300 299 299 299 298 299

GFSSE_850_thetae_093.txt.gz
Theta_e
346 332 323 319 336 337 339 337 335 332 338 341 337 337 338 338 337 336 336 335 337 337 337 334 336 333 335 332 329 323 317 315 316 324 333 339 340 339 339 341 342 339 337
344 337 326 321 333 337 337 333 334 333 339 336 334 338 337 338 339 337 338 336 333 335 333 325 330 331 332 331 330 323 321 320 327 330 331 331 337 339 339 339 340 338 338
341 342 329 322 321 327 330 324 319 319 325 326 330 333 330 328 332 336 329 331 334 333 327 321 324 327 329 330 328 321 325 322 334 334 332 331 331 336 338 339 339 340 339
341 341 339 329 319 317 316 315 314 313 314 313 313 317 317 314 316 320 320 319 318 314 313 318 323 326 327 330 329 324 323 332 333 335 337 335 330 318 330 337 338 338 341
339 340 341 326 320 313 311 311 310 310 310 310 310 310 311 313 313 313 311 310 310 311 313 315 319 324 327 331 330 328 326 332 334 334 333 336 335 326 316 323 336 338 338
339 341 335 328 317 312 311 312 314 316 315 315 316 316 314 317 316 318 323 320 324 323 322 321 317 320 327 329 328 328 329 333 333 335 334 331 332 333 329 317 317 332 338
338 340 327 322 315 314 315 318 319 321 321 323 336 339 337 335 335 332 328 329 330 330 330 330 329 324 325 329 330 330 328 332 335 335 332 327 317 326 332 331 318 317 324
339 337 323 316 316 317 320 323 328 333 337 338 338 339 338 336 333 333 332 331 331 331 330 329 328 328 327 326 326 326 327 333 333 331 331 328 327 324 317 329 334 324 318
338 337 333 325 318 320 324 331 336 337 336 336 337 336 335 334 333 332 331 330 329 328 328 327 326 326 326 326 326 327 328 328 329 328 326 323 323 323 325 322 319 335 333
336 335 334 334 331 330 333 334 336 335 334 332 331 331 330 331 331 329 328 327 325 324 325 324 324 323 322 319 318 318 317 318 320 322 317 318 318 317 316 317 322 320 324
335 336 336 335 338 340 340 336 335 334 331 329 324 324 327 330 328 326 324 322 320 318 316 312 309 308 308 308 307 307 310 310 312 315 309 310 311 312 311 311 311 314 324
336 338 336 336 337 339 339 336 339 334 334 333 326 325 326 326 326 319 317 310 306 307 307 307 306 306 308 308 307 306 308 308 309 309 304 305 306 306 307 308 308 308 309
337 338 336 336 337 339 337 339 337 337 332 327 323 322 323 320 319 319 306 307 307 308 309 308 306 307 309 309 309 309 307 307 307 306 304 303 303 304 305 306 308 308 308
337 337 337 337 337 338 338 339 338 334 327 322 320 318 316 314 311 310 311 308 310 310 310 310 309 309 309 309 309 309 308 307 306 305 305 304 304 303 303 304 306 308 309
337 337 338 338 339 339 339 337 337 333 326 321 316 313 312 310 310 310 310 310 310 310 310 310 310 309 309 309 309 309 309 308 307 306 306 305 305 304 303 303 305 310 313
337 338 339 339 340 340 339 339 337 333 326 321 316 313 311 311 311 310 310 310 310 310 310 309 309 309 309 310 310 309 308 308 308 308 307 306 306 304 304 304 303 305 306
337 338 340 341 341 340 338 337 336 333 327 323 317 312 309 308 310 310 310 310 309 309 309 309 309 310 310 310 310 310 309 308 308 307 307 306 305 304 303 303 304 304 304
337 338 341 342 340 341 340 336 334 332 327 323 317 312 309 307 309 310 310 310 308 307 308 310 310 310 311 311 311 310 310 309 308 307 307 306 304 304 305 303 303 303 303
339 339 341 342 336 340 337 334 333 332 324 328 318 312 308 307 308 308 310 310 307 308 309 309 310 309 311 311 310 309 310 309 309 307 306 306 305 305 305 304 303 302 302
340 341 340 339 337 337 336 334 330 331 327 321 316 311 307 307 308 310 310 309 309 308 310 309 310 310 309 310 310 310 311 310 309 308 307 305 305 306 305 304 303 302 302
341 338 338 338 338 337 336 332 331 332 324 320 316 310 308 307 307 307 310 311 309 309 311 309 309 309 311 311 310 311 311 311 309 307 306 306 307 306 305 304 303 303 302
331 330 336 338 335 336 333 333 331 330 323 321 314 310 308 309 308 308 310 309 309 306 308 309 309 309 311 310 310 309 310 311 310 308 306 306 306 305 304 304 304 303 302
333 338 339 335 335 335 333 331 326 318 320 316 312 309 307 308 308 307 308 309 310 310 310 311 310 309 309 310 310 309 309 309 309 308 308 307 306 305 304 303 303 302 302
337 340 337 336 336 333 332 329 322 322 317 313 310 308 307 306 307 307 308 310 310 311 311 310 310 309 309 309 309 309 308 307 307 306 306 305 305 304 303 303 302 301 301
339 340 340 339 334 332 330 327 327 317 314 312 311 309 310 308 308 309 309 310 310 310 310 309 309 309 308 308 308 309 308 307 306 305 305 304 304 303 302 302 301 301 300
337 340 338 337 333 328 324 321 318 314 313 312 312 311 311 311 309 308 308 309 309 309 309 309 308 308 308 307 307 306 306 305 305 304 303 303 302 301 301 300 300 300 299

GFSSE_850_thetae_099.txt.gz
Theta_e
349 330 319 343 340 338 336 335 337 337 336 337 338 338 337 336 337 338 331 329 332 321 324 330 330 324 318 322 331 333 332 332 330 328 337 339 338 338 339 338 338 333 333
347 328 320 342 340 335 334 329 334 338 336 338 339 338 336 335 338 333 324 327 328 319 319 323 332 326 318 322 334 334 335 336 333 324 327 336 339 338 339 340 338 337 334
344 327 323 340 335 333 333 326 327 334 335 329 333 331 328 325 325 321 319 320 317 313 318 322 332 329 322 322 329 333 333 334 334 330 318 320 334 339 337 339 340 338 336
335 323 336 339 337 325 324 319 317 319 322 321 326 322 317 312 314 314 312 310 311 315 318 326 331 330 326 326 332 333 334 330 330 331 324 333 325 328 336 338 338 340 338
329 325 330 328 324 320 316 314 312 314 312 311 312 311 311 312 311 311 314 316 317 317 318 328 329 328 327 328 330 332 334 332 326 324 325 330 335 326 319 332 337 338 338
337 327 326 325 321 314 312 310 310 310 311 311 312 312 313 316 324 332 324 327 329 328 325 328 329 328 327 328 334 334 333 332 331 323 317 320 327 337 334 317 320 334 337
337 332 327 323 316 311 311 313 315 315 317 320 322 334 335 331 331 330 331 331 330 329 327 326 325 325 325 328 333 333 331 330 329 324 325 322 320 324 334 335 325 319 333
339 341 330 322 313 313 315 318 321 323 334 338 337 337 333 331 331 331 331 330 328 326 325 324 324 325 326 327 332 331 331 329 322 315 315 319 320 321 320 332 335 327 324
341 338 329 315 314 316 320 328 335 337 337 338 339 336 332 329 330 330 329 327 324 324 323 323 323 321 319 320 323 324 320 314 312 311 311 311 312 312 315 320 321 335 330
339 329 320 315 316 320 331 335 336 335 335 334 334 329 325 325 324 325 325 323 322 322 321 319 315 310 310 310 310 310 309 308 306 305 306 307 307 309 309 310 316 321 332
336 321 316 316 319 329 333 335 333 333 328 325 322 321 320 320 319 319 319 318 316 312 309 308 308 307 306 307 306 306 306 306 305 304 304 304 305 306 307 308 308 309 320
336 328 318 319 326 332 333 333 331 328 325 320 325 324 321 319 314 315 310 307 306 307 307 307 307 308 308 308 308 308 307 306 306 306 305 305 305 304 305 306 306 308 308
335 334 330 328 332 331 331 331 330 330 325 323 328 326 325 324 316 308 306 307 307 307 307 308 308 309 309 309 309 309 309 308 308 307 307 306 305 308 306 309 305 306 306
334 335 336 336 337 333 334 332 332 331 330 322 324 324 325 320 312 306 307 308 308 308 308 308 308 309 309 309 309 309 309 309 309 309 308 307 306 305 309 311 311 305 305
335 336 336 337 337 336 335 334 333 332 328 321 321 322 321 312 309 308 308 309 309 309 309 309 309 309 309 309 309 309 309 309 309 309 309 308 306 305 305 304 304 304 304
336 336 336 338 337 338 335 335 333 331 327 322 319 316 312 309 310 309 308 309 309 309 309 309 309 309 310 310 310 309 309 309 309 309 309 308 307 306 306 305 305 304 304
337 336 336 338 337 339 338 336 334 334 331 325 318 313 311 309 310 309 309 308 309 309 309 309 309 309 310 310 310 309 309 309 309 309 309 308 307 306 306 305 305 305 304
338 336 336 336 338 339 338 335 334 334 332 327 320 314 311 309 309 309 309 309 309 308 308 308 308 309 309 309 309 309 309 309 310 310 310 308 307 306 306 306 306 305 304
337 337 337 337 338 336 337 336 335 335 331 326 323 321 311 309 309 309 309 309 308 308 307 308 307 308 308 309 309 309 309 310 311 310 310 309 308 306 307 307 306 305 305
337 337 338 337 337 338 338 336 336 335 331 329 326 323 313 309 308 309 309 309 308 307 307 307 307 308 309 309 309 309 309 310 311 310 310 309 308 307 307 307 306 306 305
337 337 337 337 335 337 336 336 336 335 333 331 326 323 314 310 307 308 308 308 308 307 307 307 308 309 309 309 309 309 309 310 310 310 309 308 307 307 306 306 306 305 304
337 334 336 338 336 337 337 334 334 333 331 329 326 322 316 310 307 307 308 309 308 308 308 307 307 308 309 309 309 310 309 309 308 309 307 307 307 306 306 305 305 304 304
334 337 339 338 337 336 335 334 334 329 329 329 325 321 318 311 307 307 308 308 308 308 307 307 308 309 309 309 309 309 309 308 309 308 308 307 307 306 306 305 304 303 303
337 338 339 334 330 336 332 333 334 331 330 330 328 321 317 311 308 307 307 308 308 308 309 310 310 310 309 309 309 308 309 309 309 308 307 307 306 306 304 304 303 303 302
335 335 334 334 339 333 334 334 333 332 331 328 322 318 313 309 308 308 308 308 308 309 310 310 310 310 310 309 309 308 308 308 308 308 307 307 306 306 304 304 303 303 302
337 339 339 338 335 334 332 333 331 329 327 322 318 314 310 309 308 308 308 309 309 310 310 310 309 309 309 309 309 308 308 307 307 306 305 304 303 303 302 301 300 298 298

GFSSE_850_thetae_102.txt.gz
Theta_e
344 328 320 336 340 339 335 336 337 336 337 338 337 337 337 337 336 325 323 327 319 323 333 324 317 328 333 333 334 334 332 325 332 337 338 339 340 340 338 337 335 332 334
345 323 338 341 339 337 336 337 337 337 336 337 337 337 336 337 335 318 317 320 315 317 332 326 318 323 332 333 334 334 334 330 321 329 336 338 339 340 339 337 337 336 335
343 324 339 342 340 336 332 336 336 337 336 337 336 331 326 322 320 316 317 314 313 317 334 329 323 323 329 330 332 331 332 333 326 318 327 334 338 338 340 339 338 337 331
342 331 339 340 336 334 331 328 332 334 332 328 327 326 317 313 313 312 311 312 316 321 334 330 326 327 330 331 333 331 329 322 327 320 321 322 326 335 339 339 339 338 333
340 335 339 338 333 327 323 317 318 320 319 318 317 312 311 312 311 312 315 316 317 329 332 330 327 327 330 330 333 332 331 323 318 321 327 332 328 320 329 337 339 339 339
334 337 340 339 326 320 316 313 314 312 311 311 311 312 313 321 321 322 325 328 325 331 331 330 327 328 332 332 332 331 331 329 325 317 322 328 331 331 321 322 336 337 339
328 338 339 331 321 314 311 310 310 311 312 313 315 323 336 335 329 330 330 330 328 326 326 325 327 326 332 333 332 330 329 321 318 320 321 318 327 332 335 322 317 330 335
327 328 330 323 315 311 311 314 315 318 321 331 335 333 330 330 330 331 330 328 326 324 324 324 325 326 331 331 331 331 328 319 314 313 314 319 320 322 332 335 328 317 327
329 328 325 319 311 312 315 319 323 334 338 337 337 334 328 328 329 329 327 325 323 323 322 322 322 323 326 328 328 323 314 310 308 309 309 310 311 314 320 324 335 333 323
340 339 327 314 313 316 323 334 337 338 338 339 337 331 323 324 325 325 323 322 322 321 320 316 313 312 313 312 310 308 306 305 305 305 306 307 308 308 309 315 321 322 325
340 337 325 314 316 324 336 336 334 334 336 334 327 320 320 319 320 320 319 319 318 315 310 308 307 306 307 306 306 306 305 305 305 305 305 305 309 308 307 308 308 315 321
337 330 317 315 320 333 337 334 332 328 324 321 317 317 316 315 315 316 314 309 307 307 308 307 307 307 307 308 307 307 307 306 306 306 306 308 307 315 308 306 306 308 310
334 319 315 317 327 332 335 331 329 324 321 318 320 320 318 316 311 307 306 307 307 307 308 308 308 309 309 309 309 309 308 308 308 308 306 306 317 319 316 317 308 305 306
332 318 316 320 330 331 330 329 326 322 318 319 320 320 320 318 308 306 307 307 307 307 308 309 309 308 309 309 309 309 309 309 309 308 307 306 306 311 309 305 305 305 304
334 328 319 328 330 331 331 329 328 328 323 319 319 319 319 316 308 307 308 308 308 308 308 308 308 309 309 309 309 309 309 309 309 309 308 307 306 306 305 305 305 305 304
334 335 332 333 334 335 332 331 330 329 327 320 318 319 320 312 308 308 308 308 308 309 308 308 308 309 309 310 309 309 309 309 309 309 308 307 306 306 306 305 305 305 305
335 335 336 336 335 337 333 333 332 331 330 323 319 318 315 310 309 308 308 309 309 309 308 308 309 309 309 310 309 309 309 309 310 310 309 308 307 306 306 306 306 305 304
335 335 336 337 336 338 335 334 334 333 332 326 319 315 311 310 310 309 309 308 309 308 308 308 308 308 309 310 309 309 309 309 310 310 310 309 309 307 306 307 306 306 305
335 336 335 337 337 339 337 336 334 333 332 328 322 316 315 310 310 309 309 308 308 308 308 308 308 308 308 309 309 309 309 309 310 310 310 309 309 307 307 307 306 306 305
336 336 336 337 337 338 338 336 334 333 331 330 327 323 318 312 309 309 309 309 308 308 308 307 307 307 308 308 308 308 309 309 310 310 310 309 308 307 307 307 306 305 305
337 336 336 337 337 337 337 335 334 334 334 333 331 325 320 312 309 309 309 309 309 308 307 307 307 307 308 308 308 308 308 309 310 310 310 308 308 307 306 306 305 305 304
336 336 336 336 335 337 337 336 336 335 334 332 330 325 317 312 309 308 309 308 308 308 307 307 307 307 308 308 308 308 308 308 308 308 309 307 307 307 306 305 305 304 304
337 337 336 337 334 337 336 335 335 335 334 331 330 322 317 313 309 307 308 308 308 308 308 307 306 306 308 309 309 308 308 308 308 308 308 307 307 306 306 306 305 304 303
336 337 337 337 337 337 334 336 334 334 333 331 329 326 317 314 309 307 308 308 308 308 308 307 308 309 309 309 309 309 308 308 309 308 307 307 307 307 307 306 304 303 302
332 338 337 338 336 336 335 333 334 333 332 330 329 326 317 312 309 308 308 308 308 308 307 309 310 310 309 309 309 309 308 308 308 308 308 307 307 307 306 304 303 303 301
334 337 337 334 336 336 332 333 333 332 328 329 327 323 317 312 310 309 308 308 308 308 308 309 310 310 310 309 309 309 308 308 307 307 306 305 304 304 303 302 300 298 297

GFSSE_850_thetae_105.txt.gz
Theta_e
337 329 322 336 333 336 336 337 338 338 337 337 337 338 337 338 325 320 322 317 330 330 320 331 334 333 333 335 332 325 325 333 336 338 340 340 340 337 337 336 336 336 334
334 331 322 334 342 336 335 336 335 336 337 337 337 337 336 334 324 315 318 314 321 333 322 329 329 335 332 333 333 327 325 321 332 335 337 339 341 339 338 338 336 336 337
337 321 334 339 341 336 336 336 336 336 335 337 337 339 330 324 316 314 314 313 324 335 325 329 328 330 330 331 329 325 326 322 320 329 333 335 339 340 340 337 335 338 339
334 330 340 341 340 337 335 337 338 336 338 337 340 327 318 314 313 312 311 316 332 335 327 326 329 329 332 331 329 322 322 323 320 322 325 329 334 339 339 340 339 336 336
333 336 340 341 340 340 335 337 336 336 332 325 324 317 312 312 310 312 315 322 335 333 328 325 326 328 330 332 331 330 325 317 321 322 325 323 322 330 338 338 339 339 337
333 336 339 339 340 337 334 327 325 324 321 318 313 311 313 313 317 320 319 332 332 330 330 327 329 330 331 331 330 328 324 324 318 322 325 328 333 322 327 336 338 338 339
335 338 338 337 329 324 318 313 314 312 311 311 313 319 339 324 326 333 334 329 334 332 328 327 328 331 331 330 328 326 321 314 318 319 319 326 338 339 322 320 330 337 338
337 339 340 337 322 317 312 310 310 311 312 316 333 339 336 330 330 330 329 326 325 324 325 325 327 330 330 329 328 322 312 312 311 313 320 319 328 336 335 333 321 329 335
338 339 339 331 318 312 310 312 314 317 327 335 333 330 329 329 330 329 327 324 323 323 324 325 326 327 327 327 319 311 308 307 307 308 310 311 317 320 331 333 328 332 333
330 333 332 323 313 311 314 318 326 338 339 338 334 330 326 327 328 326 323 322 321 321 320 320 320 318 315 311 307 305 304 304 305 306 307 308 309 310 317 320 320 322 329
328 328 326 320 312 315 321 334 339 338 338 338 336 324 322 322 323 322 321 320 319 316 311 310 309 308 307 306 305 305 305 305 305 306 308 312 310 308 308 309 313 320 322
335 334 329 316 313 320 336 337 336 337 338 337 327 318 317 318 318 318 318 316 311 308 307 306 306 307 307 306 306 307 307 306 307 309 314 319 320 320 315 307 308 310 317
340 337 329 314 316 331 337 335 334 334 328 322 317 315 313 312 314 314 311 307 307 307 307 308 308 308 308 308 308 308 308 308 307 307 313 322 323 318 306 305 305 305 306
339 336 325 315 322 336 336 334 329 324 321 318 319 316 316 312 308 306 306 307 307 308 308 308 309 309 309 309 309 309 309 309 308 307 306 306 306 306 306 306 305 304 304
338 329 319 317 326 335 333 330 326 322 318 319 320 319 319 312 306 307 307 307 307 308 308 308 308 309 309 309 309 308 308 308 309 308 307 306 306 305 305 305 305 305 305
337 331 317 317 327 332 330 328 324 320 320 319 319 318 319 313 307 307 308 308 308 308 308 308 309 309 309 309 308 308 308 309 309 309 308 307 306 306 306 306 305 304 304
337 333 318 318 330 331 330 328 327 324 324 320 319 319 318 312 308 308 308 308 308 308 308 308 308 309 309 309 308 308 308 309 309 309 309 307 308 306 306 306 306 306 305
337 334 328 322 331 332 331 330 329 329 328 325 320 317 316 311 309 308 308 308 309 308 308 308 308 309 309 309 309 308 308 309 309 309 310 309 308 307 307 307 306 306 305
334 335 334 331 333 333 334 332 331 331 332 328 324 318 314 310 310 309 309 309 309 308 308 308 308 309 309 309 309 308 308 309 309 309 310 309 309 307 307 307 306 305 305
334 335 335 336 336 335 335 333 333 332 329 325 325 320 314 312 310 309 309 308 309 308 308 308 308 308 308 308 308 308 308 309 309 309 310 309 308 308 307 307 306 305 305
334 335 334 335 336 336 336 334 334 331 327 324 322 322 325 314 311 309 309 309 308 308 308 307 307 307 307 308 308 308 308 309 309 308 309 309 307 307 306 306 306 305 305
335 335 335 335 335 335 338 335 336 330 324 324 322 326 323 317 312 309 309 309 309 309 308 307 307 307 307 308 308 308 308 308 308 308 308 309 307 307 307 305 305 305 305
336 335 334 336 335 336 337 337 336 327 325 328 326 318 321 318 314 309 309 309 309 308 308 307 307 307 307 308 309 308 308 308 308 308 308 307 306 307 306 306 306 305 303
335 334 334 335 335 336 337 337 336 332 330 332 330 329 327 312 312 309 309 309 309 309 308 308 307 306 307 309 309 309 308 308 308 308 308 307 307 307 306 306 306 304 304
335 335 335 335 335 336 337 336 334 332 333 333 331 328 324 314 312 309 308 309 309 308 309 308 308 309 309 309 309 309 309 308 308 308 307 307 306 307 307 306 304 302 301
336 334 332 335 336 335 335 334 334 331 333 327 327 327 328 323 311 309 308 309 309 309 309 308 309 310 310 309 309 309 309 308 308 307 306 306 305 305 304 303 300 297 296

GFSSE_850_thetae_108.txt.gz
Theta_e
332 321 342 336 336 335 339 337 336 337 338 339 339 338 339 329 321 322 318 333 327 319 332 332 331 337 334 327 323 326 333 336 339 340 340 339 338 336 337 335 338 337 336
332 320 341 340 336 335 336 336 338 336 337 337 337 337 337 329 317 318 315 332 331 321 329 331 335 327 334 328 321 321 323 331 334 338 340 341 339 337 335 339 340 339 337
334 320 329 333 333 334 337 336 337 337 337 336 337 338 333 323 313 314 313 331 335 324 330 329 332 330 330 325 319 322 318 321 328 332 334 339 340 340 337 336 340 340 339
334 319 335 338 341 333 335 335 335 336 337 337 339 328 319 313 312 311 315 335 336 330 330 327 333 331 330 326 319 319 320 320 322 325 330 336 342 338 339 339 337 337 338
329 323 339 340 338 336 334 336 337 336 338 339 330 321 312 312 310 313 323 337 336 329 327 327 332 330 331 328 328 322 318 322 325 324 322 325 334 338 338 338 339 338 337
325 338 339 340 339 336 335 336 337 337 333 323 320 312 312 311 315 318 334 334 334 331 326 329 331 330 329 326 323 320 322 319 321 323 327 332 321 334 337 338 338 339 338
338 340 340 339 338 337 334 330 340 332 321 315 311 322 322 329 334 326 334 333 332 332 327 329 329 328 328 327 321 316 313 318 319 321 327 334 334 337 333 337 338 338 338
338 339 340 339 335 336 329 319 316 314 311 312 319 337 336 335 335 335 334 333 327 326 326 326 328 328 327 324 315 310 310 311 314 320 323 332 333 334 335 331 331 336 337
337 340 338 337 329 322 316 312 311 311 313 332 337 336 336 332 332 329 326 324 323 323 324 324 325 326 323 314 309 306 306 307 309 310 314 319 322 329 330 332 334 333 334
337 339 339 337 323 315 311 311 313 316 327 334 336 335 335 330 328 326 324 322 321 321 323 323 321 317 311 306 305 304 305 305 306 307 308 310 313 318 319 322 330 332 333
339 339 339 334 319 311 312 317 324 338 339 336 335 328 325 325 325 323 321 320 320 319 317 314 311 307 306 305 305 305 306 306 306 308 308 311 314 313 313 312 321 325 327
337 338 337 330 315 313 317 331 338 339 339 338 335 323 321 321 321 321 320 319 316 311 309 307 306 306 306 306 307 307 307 309 309 313 321 321 310 307 307 307 307 310 316
330 329 330 324 313 316 328 338 339 338 339 338 333 318 316 318 318 318 317 315 309 307 306 307 307 307 308 308 308 308 307 307 308 312 317 307 308 310 306 304 304 304 306
336 336 335 324 314 322 337 337 337 337 337 333 319 315 314 314 315 315 310 307 307 307 308 308 308 308 309 309 309 309 309 308 307 307 306 307 306 307 306 305 305 304 304
338 338 337 328 315 328 337 336 333 333 328 320 317 316 316 310 308 307 307 307 307 308 308 308 308 309 309 309 308 308 308 308 308 307 307 306 306 306 306 305 305 305 305
339 337 336 329 315 328 337 335 332 326 322 318 319 319 315 308 306 307 307 307 308 308 308 308 308 309 309 308 308 308 309 309 309 308 306 306 306 306 306 306 306 306 305
338 337 336 325 316 324 336 333 330 324 319 320 320 319 317 309 306 307 307 307 308 308 308 308 308 309 308 308 308 308 309 309 309 309 308 308 307 307 307 306 306 306 305
339 337 335 327 316 320 333 331 329 323 321 320 319 318 316 310 307 308 308 308 308 308 308 308 308 308 308 308 308 308 308 309 309 309 309 309 308 307 307 306 306 305 305
335 333 334 332 316 320 330 330 329 325 326 322 320 318 316 311 309 308 308 308 308 308 308 308 308 308 308 308 308 308 308 309 309 309 309 309 308 308 307 307 306 306 305
334 333 336 330 318 322 330 331 330 329 328 324 322 319 315 311 310 309 308 309 309 308 308 308 308 308 308 308 308 308 308 308 309 309 309 309 308 308 307 307 307 306 305
334 333 336 335 320 325 331 332 331 331 329 326 322 320 315 313 310 309 309 309 309 308 308 308 308 308 308 308 308 308 308 308 309 308 308 309 308 307 307 307 307 306 305
333 333 334 335 327 331 334 334 334 332 331 327 322 318 314 311 310 310 309 309 309 308 308 308 307 307 307 308 308 308 308 308 308 308 308 309 308 307 307 307 306 306 306
335 332 333 335 334 330 332 333 333 333 334 329 320 317 312 311 310 310 309 309 309 308 308 308 307 307 307 307 308 308 308 308 308 308 308 308 307 306 306 307 306 306 306
335 336 334 334 332 329 331 334 335 335 335 328 320 315 315 313 310 310 310 310 309 309 309 308 307 308 307 307 308 309 309 308 308 308 307 307 306 306 307 307 306 306 305
331 336 336 334 334 333 333 333 335 337 334 332 319 320 326 323 322 310 310 309 310 309 309 308 308 308 307 309 309 309 309 309 308 308 308 307 307 307 306 306 306 305 303
335 335 335 334 334 335 335 334 334 334 327 323 321 325 326 323 322 319 310 309 309 309 309 309 309 308 309 310 309 309 309 308 308 308 307 307 306 306 305 305 303 300 297

GFSSE_850_thetae_111.txt.gz
Theta_e
332 318 345 340 338 339 337 338 339 339 340 338 337 338 335 321 320 325 328 325 321 332 331 337 336 335 322 322 327 332 336 339 340 340 338 337 337 337 339 338 338 337 337
330 317 341 339 337 336 337 338 338 338 339 338 338 339 334 322 317 317 332 329 321 327 336 333 329 328 323 318 318 327 330 334 339 340 341 340 336 339 340 340 340 337 336
323 338 337 338 338 335 338 338 337 337 337 338 338 336 332 320 313 313 333 333 324 329 332 333 330 327 319 319 319 317 322 328 332 335 339 340 340 338 336 339 340 339 335
325 341 339 339 335 334 335 337 337 337 337 337 339 334 320 312 312 313 335 337 331 329 327 335 329 329 326 318 317 319 321 322 326 332 337 338 339 339 338 338 338 339 338
324 330 338 337 332 336 336 337 336 337 337 338 336 324 313 311 311 317 338 338 332 328 331 331 330 328 326 325 321 319 323 326 322 324 331 336 339 339 339 339 338 338 338
324 325 335 342 339 337 336 335 337 336 339 335 327 317 311 311 315 334 337 336 333 326 331 330 329 326 322 321 319 321 320 324 324 332 333 326 336 338 339 338 339 338 338
324 339 340 340 337 337 334 335 338 338 336 325 319 311 312 315 327 335 335 335 333 330 331 330 326 325 323 315 315 313 319 320 325 330 334 335 331 337 337 337 338 338 338
327 338 339 340 337 337 336 336 338 334 325 315 312 316 333 332 333 335 335 335 334 326 330 327 324 323 319 312 310 310 311 316 321 330 333 334 333 333 334 334 336 337 337
339 339 340 341 338 337 333 326 317 317 312 313 332 334 334 336 335 334 334 329 327 325 327 323 323 320 312 308 306 307 308 310 312 319 324 328 328 333 331 331 332 334 335
338 339 340 339 335 335 327 316 312 311 314 334 336 334 334 334 334 329 325 323 322 323 324 322 318 312 307 305 305 305 306 307 309 310 323 325 323 328 330 330 331 331 331
338 339 338 338 334 324 315 311 312 314 332 338 337 334 332 332 328 325 322 321 321 321 319 314 310 306 305 305 305 306 306 307 308 320 323 317 322 321 315 316 323 327 328
337 339 339 338 328 316 312 313 318 334 337 336 335 330 322 325 324 322 320 320 319 318 313 308 306 305 306 307 308 309 309 310 312 321 319 315 313 308 306 306 307 309 314
336 338 338 336 327 313 314 320 337 340 338 335 335 325 320 320 320 320 319 318 313 310 307 306 306 307 308 308 308 308 309 310 309 312 311 311 308 306 305 304 304 304 304
338 338 335 332 323 313 318 335 339 340 338 338 336 322 317 318 319 318 317 313 308 306 307 307 307 308 308 309 308 308 308 308 307 308 307 307 307 307 306 305 305 305 305
333 331 331 329 321 314 321 337 339 338 339 338 332 317 315 315 316 317 313 308 307 307 308 308 308 308 309 309 309 309 308 308 307 307 307 307 307 307 306 306 306 306 305
335 331 331 332 324 314 326 337 337 337 337 335 320 314 314 312 312 310 307 307 307 308 308 308 309 308 308 308 308 308 309 308 308 307 307 307 307 307 307 307 306 306 306
337 336 336 333 321 315 321 336 335 333 333 325 318 318 314 308 307 307 307 307 308 308 308 308 308 308 308 308 308 309 309 309 308 308 308 308 307 307 307 306 306 306 306
338 337 337 336 322 317 317 332 335 333 327 321 320 319 315 307 306 307 307 307 308 308 308 308 309 308 308 308 308 308 309 309 309 309 309 308 307 307 307 306 306 306 305
338 338 338 336 324 318 322 330 333 331 326 320 321 321 317 308 307 307 307 307 308 308 308 308 308 308 308 308 308 308 308 309 309 309 309 309 308 308 307 307 306 306 305
339 338 337 336 327 317 329 330 331 330 327 321 322 321 319 310 307 308 308 308 308 308 308 308 308 308 308 308 308 308 308 309 309 309 309 309 308 308 307 307 306 306 305
338 338 338 337 329 318 328 329 332 330 328 323 324 323 321 312 308 308 308 308 308 308 308 308 308 308 308 308 308 308 308 308 309 309 308 308 308 308 307 307 307 306 305
337 337 335 332 331 319 318 326 332 331 330 326 325 325 325 317 310 309 309 309 309 309 308 308 308 308 308 308 308 308 308 308 308 308 308 308 308 308 307 307 307 306 306
336 336 335 333 332 330 330 324 331 332 333 331 327 325 326 321 312 309 309 309 309 309 308 308 308 308 307 307 308 308 308 309 308 308 308 308 308 307 306 306 306 306 306
328 336 335 332 334 334 330 332 332 332 332 332 331 327 324 319 314 310 309 309 309 309 308 308 308 308 307 307 307 307 308 308 309 309 307 307 307 306 306 306 306 306 306
325 327 336 332 333 334 333 330 328 330 333 333 332 326 322 319 316 311 310 310 310 309 309 309 308 308 307 308 307 308 309 309 308 308 309 308 307 307 307 307 306 306 305
325 333 335 333 333 334 331 329 330 329 332 327 324 317 316 321 319 319 317 311 309 309 309 309 309 308 308 308 309 309 309 309 309 308 308 308 307 307 306 306 305 304 302

GFSSE_850_thetae_114.txt.gz
Theta_e
324 325 337 343 340 340 340 339 340 340 334 338 336 337 333 325 324 322 322 327 328 338 341 337 327 318 322 328 334 336 339 340 338 338 336 339 340 340 341 341 342 341 337
326 339 344 342 341 340 340 340 340 341 339 338 337 338 324 320 328 329 326 322 333 339 331 328 326 319 317 319 326 329 333 338 340 342 341 339 339 340 340 340 339 336 339
330 345 346 342 340 340 339 339 339 339 339 339 339 337 328 316 318 328 330 323 332 337 332 328 323 318 318 316 317 325 329 332 335 342 342 344 340 339 339 339 340 339 337
334 345 347 339 340 339 339 339 338 338 338 339 337 334 323 312 313 334 334 332 328 331 335 329 326 323 316 317 319 319 323 328 332 339 342 343 341 339 339 339 339 340 339
340 347 344 340 338 338 339 338 338 338 337 340 336 327 313 312 313 336 339 333 328 333 331 329 325 323 323 319 319 323 322 321 328 336 341 342 340 339 339 340 338 338 338
346 347 343 340 337 338 337 337 337 338 338 337 336 323 311 311 317 338 339 334 329 334 330 328 324 321 320 321 321 321 324 327 335 336 335 338 339 339 338 339 339 339 339
343 343 342 337 336 337 338 337 337 338 339 335 326 314 311 313 333 337 337 334 332 332 331 327 324 322 314 315 316 320 323 328 337 339 336 336 335 337 338 338 338 338 338
341 341 343 341 339 338 336 337 339 337 338 331 318 311 313 327 335 336 336 334 333 332 330 325 323 320 312 310 311 314 322 331 333 334 333 333 333 334 336 337 337 337 336
341 344 348 342 339 337 336 337 338 336 333 318 313 318 328 332 335 336 336 335 329 330 327 323 321 314 310 308 308 310 313 324 329 330 330 332 332 331 332 334 335 335 335
341 342 346 344 343 341 339 336 335 320 316 316 329 335 337 336 333 335 335 328 324 327 321 321 316 309 305 306 306 307 310 323 327 328 328 328 329 332 329 327 330 333 333
342 343 345 344 344 344 340 336 323 314 315 334 335 335 335 335 335 331 333 323 323 323 319 315 309 306 305 305 306 308 322 325 325 326 326 322 320 318 314 315 318 323 328
343 343 345 344 340 339 336 334 330 330 335 339 337 336 334 334 333 330 327 322 324 319 314 308 306 305 314 315 309 321 326 324 324 325 324 316 312 306 305 305 306 309 314
343 343 343 341 339 335 331 331 331 333 338 339 338 335 333 331 328 326 326 325 327 315 309 306 306 317 320 320 321 324 325 323 324 324 321 315 315 308 306 305 305 304 304
341 342 340 341 338 332 329 331 335 337 339 339 336 335 330 329 326 324 323 323 324 319 307 307 308 309 316 319 321 321 321 321 322 320 311 309 309 309 307 306 306 306 305
340 340 341 340 337 331 329 333 337 338 338 338 337 333 327 325 324 323 321 319 316 307 307 307 309 310 313 316 318 318 317 317 318 317 313 308 308 308 307 307 306 306 306
340 339 339 340 336 330 330 335 337 339 337 337 335 329 322 323 321 320 318 313 308 308 308 309 310 310 310 311 311 313 313 313 314 315 315 307 307 307 308 307 307 306 306
340 339 339 338 336 330 331 337 338 337 338 338 336 321 315 317 318 316 313 309 308 308 309 310 310 309 309 309 310 310 311 311 311 310 312 312 307 307 307 306 306 306 306
340 340 339 337 336 332 333 338 338 339 338 336 330 317 316 312 313 310 309 309 308 308 308 308 308 309 310 310 310 310 310 310 310 309 308 308 308 309 307 307 306 306 305
339 338 337 336 336 333 331 339 339 335 334 331 323 318 318 309 307 307 308 307 308 308 308 309 309 310 310 310 310 310 310 310 310 309 309 309 308 308 307 307 306 306 305
341 339 338 336 335 333 330 333 336 337 334 327 324 322 320 310 306 307 307 308 308 308 308 309 309 310 311 311 310 310 309 309 309 310 309 309 309 308 307 307 306 306 306
339 341 338 337 336 334 324 337 336 336 334 328 323 322 322 314 307 307 307 308 308 308 308 309 311 309 309 311 311 310 309 309 310 309 309 309 308 308 308 307 307 306 306
338 338 338 338 337 334 321 326 336 337 333 331 324 323 323 319 309 308 308 308 308 308 308 309 308 310 310 308 311 312 311 310 308 309 308 308 308 308 308 307 307 306 306
337 336 337 338 337 335 328 318 327 335 331 331 328 324 325 324 310 308 308 309 308 308 308 308 308 308 308 308 308 310 311 311 312 309 308 308 308 308 308 307 306 306 306
332 335 336 336 335 333 331 319 326 328 330 330 331 327 326 326 318 310 309 309 309 309 309 308 308 308 308 308 307 307 308 311 311 312 309 308 308 307 307 307 306 306 306
333 334 335 335 333 333 328 323 324 328 331 332 330 331 328 327 326 318 312 309 309 309 308 309 309 308 308 308 307 309 307 308 310 311 311 311 308 307 307 306 306 306 304
333 336 335 335 333 333 329 326 328 330 329 329 329 331 331 326 324 320 315 310 310 313 309 309 308 308 308 308 308 310 310 311 311 310 310 310 310 309 306 306 306 305 304

GFSSE_850_thetae_117.txt.gz
Theta_e
339 324 343 342 342 343 340 342 341 340 341 334 339 337 338 326 321 321 327 334 342 341 336 324 318 323 330 334 338 340 340 340 339 339 340 340 341 341 339 341 341 339 340
335 325 344 343 341 341 340 340 340 336 339 339 337 335 323 321 325 324 326 336 338 332 326 323 317 316 322 326 329 333 339 342 342 343 341 341 340 340 340 338 339 339 340
335 344 340 343 341 340 340 340 341 339 339 339 338 335 323 324 324 328 323 339 339 332 327 323 317 317 315 321 326 330 334 340 341 343 343 344 340 340 340 341 340 339 341
341 346 348 342 340 339 340 340 340 339 339 339 338 335 323 316 327 332 329 332 332 334 329 325 322 316 316 317 320 325 332 336 340 341 341 341 341 340 339 339 339 340 340
345 347 350 342 340 339 339 340 338 339 339 338 337 331 314 312 329 338 334 331 334 331 329 323 321 322 318 320 321 321 332 335 337 339 340 340 340 340 339 340 339 339 340
345 346 348 340 340 339 339 339 337 338 339 338 336 324 312 312 333 341 337 332 332 329 329 323 320 320 321 320 321 327 333 334 337 337 338 339 339 339 339 339 340 337 335
346 347 345 341 339 338 339 338 338 338 338 337 336 321 311 313 335 340 336 333 335 331 329 322 321 316 316 318 322 326 334 335 335 335 335 337 339 339 338 337 337 338 334
345 347 347 340 338 338 337 338 338 339 338 335 327 313 311 325 338 338 336 334 335 332 327 322 319 313 311 312 318 326 334 334 333 332 331 333 335 337 338 338 337 337 337
342 342 344 344 338 338 338 338 338 339 337 334 318 312 318 335 336 337 335 334 334 331 324 321 317 311 309 309 312 321 329 330 330 333 332 331 332 332 335 336 336 335 336
341 341 343 346 344 341 338 338 339 339 334 323 314 318 330 335 335 336 336 332 331 328 322 320 313 307 306 307 309 315 325 328 329 328 328 329 332 334 332 333 333 333 334
340 343 345 346 344 343 342 338 338 336 322 319 326 337 335 335 335 334 335 328 330 325 320 314 308 305 305 307 315 325 326 326 327 326 324 325 321 317 315 322 323 325 327
340 341 344 345 344 342 341 339 337 334 327 334 336 336 339 336 334 335 331 326 327 320 315 308 305 312 315 318 325 326 325 326 325 325 322 319 314 308 305 305 306 309 314
343 342 343 345 343 340 338 338 332 331 333 337 338 335 334 334 332 331 326 329 323 316 309 305 313 322 322 323 326 325 324 325 324 322 319 313 314 312 308 306 305 305 305
334 334 341 343 343 337 336 333 330 331 336 339 338 335 334 332 328 328 327 329 327 319 315 315 319 322 322 323 323 322 323 324 321 320 320 320 319 316 309 307 306 306 306
342 342 343 339 339 336 333 331 331 335 336 339 338 335 333 329 326 325 325 325 323 315 312 314 317 319 320 321 320 319 320 320 319 319 314 314 315 314 314 311 308 307 306
340 341 340 340 339 335 332 331 336 339 338 337 336 335 330 327 325 324 323 319 317 311 312 313 313 314 315 316 316 316 316 317 317 318 313 309 310 310 310 310 309 307 306
341 339 341 340 336 335 331 332 337 338 338 337 336 334 327 325 323 322 320 315 312 311 312 312 312 313 313 313 313 313 313 314 316 317 315 308 307 307 307 306 306 306 307
340 341 340 340 336 335 331 334 335 337 338 337 336 329 324 322 321 319 316 312 311 311 312 312 312 313 313 313 312 312 312 312 312 313 314 314 313 309 307 306 306 306 305
340 340 340 339 336 336 332 335 334 336 337 336 333 326 322 320 318 315 313 312 311 311 312 312 312 312 312 312 312 312 312 312 312 311 311 309 308 309 308 307 306 306 306
340 339 338 339 336 335 333 334 334 335 336 335 330 324 321 317 314 312 312 312 311 311 312 312 313 312 312 312 311 312 312 312 312 312 311 311 309 308 308 307 307 306 306
337 334 329 338 337 335 334 332 334 335 335 334 328 325 319 316 311 312 312 311 311 311 312 312 313 313 313 312 312 312 312 312 312 312 311 310 310 309 308 307 307 307 307
339 338 336 338 336 336 335 332 333 334 334 332 328 326 319 317 312 307 308 309 309 312 313 313 313 313 313 313 313 313 313 312 311 311 311 311 310 309 308 308 307 307 306
337 337 338 339 338 337 336 333 332 335 334 333 329 327 323 322 315 307 307 308 308 312 313 313 312 313 313 312 312 313 312 312 313 312 310 309 309 309 309 308 307 306 306
333 335 334 337 338 338 337 334 325 332 335 335 332 329 323 324 321 313 308 308 308 311 312 312 311 309 311 311 308 307 310 312 313 313 311 311 310 310 309 308 307 306 306
330 334 337 331 335 337 336 333 327 331 332 332 331 330 330 325 324 318 309 308 309 309 309 309 309 309 309 309 312 311 308 308 308 310 312 312 310 310 308 308 307 306 306
330 335 334 327 324 335 336 333 324 323 325 327 331 331 330 327 326 325 322 315 310 309 309 309 309 308 309 309 309 310 311 311 311 311 311 312 312 311 310 308 307 306 305

GFSSE_850_thetae_123.txt.gz
Theta_e
343 332 332 334 346 342 342 342 343 341 340 338 338 321 317 322 336 341 342 336 324 321 328 338 342 340 340 340 341 341 341 341 339 339 339 338 339 340 336 338 321 327 338
339 334 335 330 344 341 343 344 343 339 334 340 335 321 317 320 329 339 338 329 322 318 322 327 326 329 336 337 339 339 341 341 340 339 340 340 339 341 340 333 324 319 335
337 333 336 332 343 342 344 342 340 337 337 337 332 322 317 322 337 341 337 330 324 320 316 315 320 330 336 335 336 338 339 339 339 339 339 340 340 340 342 331 339 327 324
336 331 339 340 342 338 340 338 337 338 338 335 330 323 316 322 335 339 332 331 325 319 318 315 316 325 331 332 333 337 338 338 338 338 339 340 340 339 337 330 333 337 333
333 327 341 342 342 337 337 338 337 340 337 337 333 320 315 331 329 333 330 327 326 319 318 319 317 320 330 331 333 336 336 337 337 338 339 340 339 333 329 326 325 333 336
327 333 343 340 340 338 338 340 338 340 337 336 331 315 318 336 336 338 334 327 328 320 317 319 319 320 325 332 334 334 331 337 337 338 338 338 339 339 334 328 323 320 323
340 337 345 341 341 340 341 340 338 339 337 335 327 314 320 339 339 337 335 331 328 321 317 314 321 324 332 332 330 330 327 335 336 337 338 338 338 338 338 337 336 334 327
346 342 342 342 339 339 339 339 338 339 337 335 330 313 316 337 340 337 337 333 328 320 316 312 315 323 332 331 332 332 330 331 334 335 336 336 336 336 336 333 330 332 334
346 347 342 341 339 338 338 338 338 338 337 334 324 312 324 334 339 336 337 334 328 318 315 310 310 324 331 330 332 331 330 327 328 330 332 333 332 332 331 332 332 333 333
346 345 344 339 339 338 339 337 339 337 336 332 317 317 330 336 338 335 336 333 326 317 313 308 308 318 330 328 329 329 325 321 325 324 329 330 330 331 329 331 330 332 332
344 344 344 340 339 338 338 338 339 337 336 331 314 328 332 336 336 335 334 331 321 316 309 306 309 319 325 326 324 323 322 315 314 316 321 323 322 318 320 324 325 323 322
343 344 341 339 338 338 338 338 338 338 331 324 320 329 334 335 335 334 330 326 317 312 306 307 321 325 325 325 324 324 315 310 311 315 319 316 313 306 306 306 306 306 306
340 343 342 336 336 338 338 338 338 336 324 315 325 330 334 333 332 330 329 324 316 308 308 321 325 326 325 326 325 324 316 308 309 310 312 309 308 307 307 306 307 306 306
328 333 341 341 341 340 336 336 336 334 321 317 334 336 334 332 332 332 330 320 313 311 318 318 320 325 324 324 323 323 320 309 310 311 310 308 308 308 307 307 307 306 306
336 339 340 340 341 340 339 339 335 330 317 327 337 334 333 334 333 330 322 317 309 311 316 319 323 323 323 323 323 322 319 311 310 310 309 308 308 308 307 307 306 306 306
338 339 334 335 341 339 339 335 331 329 325 334 337 336 334 333 328 324 325 323 315 310 314 321 321 320 320 320 320 319 318 314 309 309 309 309 308 308 308 307 306 306 306
335 338 335 338 338 334 338 332 330 330 330 335 336 334 333 332 326 325 327 325 321 311 316 320 318 320 318 317 318 317 317 314 311 308 308 307 307 307 307 306 306 306 306
336 335 334 333 336 336 336 333 330 331 330 333 337 333 332 331 326 325 325 324 321 311 314 316 316 320 317 316 315 314 314 314 313 312 309 308 307 307 306 306 306 306 306
330 336 334 337 335 336 335 331 332 332 332 333 336 333 333 328 325 325 323 321 314 312 313 313 313 313 313 313 312 313 312 313 312 311 310 310 309 308 307 307 306 306 305
322 333 336 333 335 335 335 332 331 331 334 334 336 333 330 327 324 324 322 318 311 312 312 312 312 312 312 312 312 311 311 311 311 311 311 310 309 308 308 307 307 306 306
325 336 336 335 336 332 336 334 332 331 332 334 336 334 330 325 322 321 319 315 311 312 312 312 312 312 312 312 312 312 312 312 311 311 311 311 310 310 309 308 308 307 307
324 334 334 334 333 335 332 334 333 332 332 334 334 333 326 324 321 320 316 313 311 311 312 312 312 312 312 311 311 312 312 311 311 311 311 311 311 310 310 309 308 308 307
322 327 333 332 332 331 331 328 333 332 331 333 331 326 325 323 318 316 313 312 311 311 311 312 312 312 312 311 311 312 313 313 312 311 312 311 311 310 310 309 309 308 308
324 327 330 327 331 332 330 328 328 331 330 333 330 326 324 320 316 313 312 312 311 311 312 312 313 313 312 312 312 312 312 312 311 312 311 311 311 310 310 309 309 309 308
324 327 330 330 330 328 328 328 331 330 330 332 328 327 325 320 316 314 312 312 311 311 312 311 312 311 312 313 311 310 309 308 308 308 308 308 310 311 310 309 309 308 308
325 330 329 328 331 327 327 325 327 329 330 328 329 330 325 324 320 315 312 312 311 312 312 312 311 313 313 310 310 308 308 308 310 311 310 311 312 311 310 310 309 308 308

GFSSE_850_thetae_129.txt.gz
Theta_e
325 329 335 346 342 338 332 343 345 336 331 318 320 335 340 342 331 322 317 321 333 339 339 340 341 340 341 341 340 340 340 340 340 341 340 340 332 336 337 335 337 339 337
323 327 338 346 343 343 334 343 344 337 332 320 317 336 339 342 335 323 318 315 319 335 338 339 340 340 339 339 340 339 339 339 340 340 338 338 336 336 336 337 336 338 339
323 325 338 344 344 343 337 344 344 336 333 321 316 334 337 339 331 323 319 316 316 334 336 334 333 335 335 334 336 338 339 340 340 340 339 339 339 334 335 336 336 337 338
323 328 341 342 343 341 341 342 342 334 333 323 315 326 339 337 331 325 319 317 315 332 331 331 331 334 336 335 337 337 338 339 338 337 339 334 334 335 336 336 335 335 336
324 329 344 341 341 340 344 343 338 333 333 325 315 329 339 337 330 327 319 317 316 322 330 330 329 332 334 335 336 337 338 338 336 335 328 324 322 322 330 335 335 335 335
329 330 344 344 342 343 344 343 335 335 332 326 315 334 337 335 327 326 320 317 317 318 330 331 330 330 331 334 335 336 338 339 340 339 339 339 340 332 322 326 332 333 334
338 335 341 343 342 343 344 342 338 337 333 328 315 327 334 332 327 326 323 317 316 318 331 331 329 331 330 329 334 336 337 337 338 337 336 334 334 333 333 326 322 332 335
338 338 337 342 342 344 343 338 337 336 334 329 316 335 337 338 331 328 324 316 315 319 328 329 330 329 326 325 331 336 336 336 336 336 335 333 332 333 333 332 332 326 333
339 339 336 343 342 342 341 337 339 336 334 326 318 337 339 339 336 329 324 316 313 321 328 327 328 330 330 328 332 335 335 335 334 333 332 333 332 332 331 330 331 331 332
341 337 338 343 342 342 340 338 339 338 334 323 316 335 339 339 337 332 325 316 312 322 330 324 328 330 329 326 324 325 331 332 332 330 329 331 331 333 326 329 328 331 329
342 338 340 342 342 342 339 340 339 339 335 328 315 332 337 339 338 334 327 316 311 319 329 324 324 326 327 325 320 318 321 326 327 322 322 325 318 317 316 315 319 318 319
335 332 338 338 340 334 340 340 339 338 335 329 314 327 335 337 337 334 327 315 309 318 328 323 325 324 320 318 314 316 321 319 314 310 313 314 314 311 307 307 307 307 306
336 336 332 331 332 326 331 338 338 338 335 325 315 329 334 337 336 334 325 314 307 320 328 325 320 321 321 313 309 309 310 308 307 308 310 311 312 310 308 307 307 307 307
330 331 329 331 328 325 333 337 336 337 335 323 327 330 333 336 335 330 322 312 306 320 325 323 322 323 323 317 308 308 308 308 309 309 309 309 310 308 307 306 306 306 306
330 330 330 329 324 331 337 337 336 337 335 327 326 330 332 335 333 327 320 309 309 320 324 324 322 323 323 321 312 309 309 309 309 309 309 308 308 307 307 306 306 305 305
326 330 330 331 328 330 336 336 335 335 334 325 322 326 332 334 330 328 319 307 317 324 324 324 323 323 323 321 314 310 310 309 309 309 309 309 308 308 307 306 306 306 306
321 333 331 331 330 327 328 334 335 334 333 321 323 328 332 331 332 331 319 312 322 324 324 324 324 323 323 320 317 313 309 309 309 309 308 308 308 307 307 306 306 306 306
320 330 332 332 330 328 325 326 327 335 333 321 324 332 332 333 331 321 316 313 317 318 324 323 322 323 322 319 317 314 311 309 308 308 308 307 307 307 307 307 306 306 306
321 327 332 332 331 327 328 327 326 332 330 324 327 335 334 334 327 323 316 310 314 320 323 322 321 321 319 318 316 313 312 311 309 308 307 307 307 307 307 307 306 306 306
324 320 329 329 331 329 327 328 328 327 330 326 329 333 334 332 327 325 322 318 311 320 320 318 318 319 317 316 314 312 312 312 311 311 310 310 309 308 307 307 307 306 306
328 323 326 329 331 332 332 329 330 332 331 329 333 333 334 330 327 325 324 323 319 317 317 316 316 316 315 315 313 313 313 312 311 310 311 311 310 309 309 308 308 307 307
327 323 326 327 331 331 332 332 332 333 331 331 333 334 334 331 327 327 324 323 320 313 316 314 314 314 314 313 312 312 314 313 312 311 311 311 310 310 310 310 309 308 308
328 327 329 328 330 331 331 332 332 333 332 332 333 333 329 329 327 325 324 322 319 312 313 313 312 312 312 312 311 311 311 311 311 311 311 311 311 311 310 310 310 309 308
326 328 327 328 328 330 331 332 332 332 333 332 331 331 328 324 324 324 319 321 319 312 312 312 312 312 312 312 311 311 311 311 311 311 311 311 311 311 311 310 310 309 309
326 326 328 329 330 330 331 332 332 332 331 326 326 326 327 329 325 321 317 317 315 312 311 312 312 312 312 312 312 311 312 312 312 311 311 311 311 310 310 310 310 309 309
326 327 329 330 331 331 331 331 331 331 330 325 327 326 325 318 319 314 312 313 312 311 311 311 312 312 312 311 311 311 311 311 309 308 309 309 309 310 310 310 310 309 309

GFSSE_850_thetae_132.txt.gz
Theta_e
332 337 345 344 336 332 342 343 338 332 320 320 335 339 336 324 316 313 322 334 338 339 341 341 340 340 340 340 340 340 340 340 340 339 333 337 338 340 337 338 338 338 330
328 333 345 346 338 331 341 345 340 333 320 321 335 338 341 326 319 315 321 333 337 338 340 339 340 339 340 340 339 340 340 339 338 338 334 336 338 339 338 337 338 338 337
325 332 345 346 341 331 341 344 341 334 321 319 335 338 341 333 320 316 316 326 334 337 338 338 338 338 338 338 340 339 339 339 338 339 338 335 336 336 335 335 336 338 338
324 332 345 345 344 337 342 344 342 334 323 318 336 337 338 330 322 318 316 318 332 333 331 333 333 335 336 337 338 337 337 337 334 334 330 333 335 337 336 335 336 336 337
324 329 344 345 344 342 342 344 342 334 325 317 333 337 337 328 324 319 317 326 333 332 330 333 333 335 334 337 337 336 336 332 327 324 323 324 333 333 334 334 333 335 336
324 328 338 344 343 343 341 343 341 333 328 318 321 337 339 331 326 320 317 317 331 331 330 330 332 333 333 335 336 338 338 338 338 338 336 334 327 323 331 332 332 334 335
327 328 342 340 342 342 343 343 340 334 330 319 332 335 336 331 325 321 317 317 333 333 329 329 330 330 332 334 336 338 338 337 335 334 333 333 334 332 321 331 332 334 335
336 327 337 345 342 342 344 344 338 338 332 323 328 333 334 330 326 323 317 316 331 337 330 330 330 328 328 333 336 337 337 336 334 332 333 334 334 338 334 330 330 331 332
339 335 336 341 341 341 343 343 339 338 335 326 317 333 337 330 328 324 317 316 333 331 328 330 328 325 325 330 335 336 336 335 334 332 333 333 332 333 330 332 331 331 331
339 341 337 337 340 341 343 343 338 336 335 329 320 338 339 338 330 326 317 316 331 328 329 331 329 328 327 329 333 334 334 332 332 328 329 330 333 333 328 330 330 330 331
340 340 339 336 340 341 341 340 340 338 335 329 323 337 339 339 333 328 318 314 329 327 329 329 332 327 324 322 321 328 332 330 328 324 322 327 323 318 316 313 314 316 317
337 336 337 334 337 338 340 339 341 340 336 327 318 335 339 339 335 329 320 313 327 328 326 327 326 324 318 316 317 320 325 325 320 313 320 321 320 318 312 311 311 310 308
335 334 335 334 334 331 335 338 334 330 339 331 317 328 337 338 337 332 322 312 324 327 326 325 323 319 316 312 315 321 320 313 310 310 319 317 318 315 311 308 307 306 306
331 335 335 334 332 327 327 327 327 326 338 333 318 322 333 335 337 333 324 312 317 327 323 322 321 321 309 309 310 311 309 308 310 310 313 315 312 312 309 306 306 305 305
327 331 330 331 329 330 326 328 327 329 337 334 319 322 331 334 336 333 321 311 312 324 323 320 322 321 309 309 309 308 309 309 309 310 310 309 309 310 309 308 306 305 305
316 322 330 329 330 327 329 327 335 333 336 334 319 324 330 335 335 329 319 309 313 320 321 321 322 321 317 310 310 309 309 309 309 309 309 310 309 308 308 307 306 306 306
319 318 319 328 330 328 331 333 333 337 336 331 327 325 329 334 334 325 317 307 313 322 323 323 323 322 318 312 310 310 310 310 309 309 309 308 308 307 306 306 306 306 306
319 319 328 331 331 328 327 325 329 330 333 332 328 327 329 334 332 330 316 309 320 324 323 323 324 322 319 316 312 310 310 310 309 309 308 308 307 307 307 306 306 306 306
320 320 329 330 331 327 324 322 326 329 327 333 327 326 331 333 331 330 315 313 322 323 323 323 323 322 319 317 313 311 310 310 309 308 307 307 307 307 307 307 306 306 306
320 321 326 330 331 329 328 326 327 326 327 331 327 327 333 332 332 322 314 318 321 322 323 323 322 322 319 316 313 312 311 310 309 308 308 308 307 307 307 307 307 307 306
323 322 329 330 329 330 329 327 327 328 330 331 325 328 332 332 330 322 314 315 317 318 321 322 321 322 318 315 313 313 312 312 311 311 310 310 309 308 308 308 308 308 307
327 323 324 326 327 330 330 329 327 327 331 326 326 327 331 332 330 322 314 314 312 316 321 318 319 321 317 315 313 313 314 313 311 311 311 311 310 310 310 309 309 308 308
324 326 328 330 328 329 331 331 330 327 329 331 326 329 331 332 330 327 324 322 320 313 319 317 317 317 316 315 314 312 313 312 312 312 311 310 311 310 310 310 310 309 309
325 327 328 328 330 330 331 331 331 331 331 332 331 332 331 332 330 326 325 321 319 317 317 316 314 314 314 314 313 311 311 310 311 311 311 311 311 311 311 311 310 310 309
326 327 327 329 330 329 330 331 332 331 332 331 331 321 324 330 328 328 325 323 317 313 313 314 313 312 312 312 311 311 311 312 312 312 311 311 311 311 311 310 310 310 309
324 324 326 328 328 330 332 332 331 332 331 329 325 325 327 328 327 325 325 322 316 311 311 312 312 312 312 312 311 311 311 312 311 311 309 310 310 310 310 310 310 310 309

GFSSE_850_thetae_135.txt.gz
Theta_e
333 337 348 347 331 342 333 333 330 327 317 316 319 323 321 315 315 320 335 337 339 340 340 340 340 340 341 341 341 339 338 336 332 337 339 339 338 339 339 340 339 338 338
332 337 348 343 333 339 342 337 335 326 323 337 342 336 322 317 314 324 335 338 340 341 339 340 340 340 339 340 341 339 337 338 333 336 338 337 337 338 337 338 340 338 336
332 339 348 344 335 337 344 342 337 325 325 335 337 339 328 319 315 321 334 338 339 340 339 339 339 338 340 341 341 338 337 338 337 335 336 339 337 335 335 336 335 338 338
331 337 347 346 338 334 344 345 338 328 323 334 337 339 337 320 316 317 327 336 336 336 334 335 335 335 338 339 340 336 334 335 331 332 335 337 337 334 336 336 336 333 337
329 335 346 346 341 333 342 344 340 331 323 333 336 337 332 322 318 316 327 333 332 332 333 332 334 335 338 335 337 333 328 325 323 325 329 334 335 334 335 335 337 336 335
327 332 344 346 343 339 341 344 341 333 321 333 335 337 331 324 320 318 333 333 332 331 333 334 334 333 336 335 337 336 335 335 333 332 330 324 332 333 334 334 335 336 336
327 331 343 346 344 344 340 343 342 334 324 322 333 337 331 327 322 320 327 334 330 331 331 332 334 333 336 336 337 338 337 334 332 335 335 334 327 330 331 334 335 335 336
327 330 339 341 343 342 341 343 343 334 329 319 332 337 330 326 324 320 324 334 332 331 330 331 330 331 333 335 336 337 334 332 333 335 334 334 334 333 328 330 332 334 335
329 334 336 342 341 341 340 343 342 336 331 322 334 336 333 327 325 319 321 329 333 331 330 329 329 328 332 336 336 336 334 334 333 334 333 332 332 333 331 329 329 328 332
334 331 336 339 344 341 340 343 343 337 334 324 331 334 336 328 327 321 320 332 328 329 332 328 328 329 332 335 336 335 334 332 330 328 330 331 330 328 328 328 329 329 328
339 337 337 336 336 340 340 342 343 339 336 332 323 334 338 333 328 323 318 332 327 332 333 330 328 328 328 333 334 333 333 331 328 325 326 326 323 321 317 317 316 316 315
338 336 337 338 336 335 336 338 340 339 340 338 325 337 339 338 330 324 316 328 326 330 330 329 325 322 323 322 327 331 330 328 323 322 325 326 323 323 319 317 314 313 310
338 337 336 336 337 336 335 336 336 338 338 335 331 333 339 339 331 325 317 327 328 324 328 324 322 318 317 317 318 321 324 320 315 325 325 321 320 319 313 309 308 307 307
330 334 335 335 335 335 335 326 327 330 338 331 334 329 337 339 334 329 320 321 328 325 326 322 317 314 312 316 321 321 315 310 319 324 323 320 317 314 309 307 306 306 305
319 328 332 334 335 336 333 330 329 328 334 334 330 329 336 338 336 332 324 314 321 325 324 318 319 309 310 313 316 312 311 312 315 321 322 318 315 313 309 307 306 306 306
319 316 323 330 331 332 330 329 326 327 328 328 328 330 333 335 336 333 327 314 315 318 321 320 319 308 310 311 311 312 311 311 311 312 320 317 313 311 310 307 306 306 307
320 319 316 322 329 329 330 330 332 334 332 327 329 330 331 334 336 334 326 314 311 319 320 322 320 313 310 311 311 312 312 312 311 310 310 314 310 307 307 306 307 307 307
318 320 319 318 326 329 330 327 327 333 331 335 333 329 326 330 336 333 324 313 310 319 321 322 322 316 311 312 312 313 313 312 312 311 310 308 307 308 307 306 306 307 308
318 319 320 321 327 329 328 325 324 327 329 332 332 328 327 330 335 329 322 311 311 319 322 322 323 319 314 312 312 312 312 312 310 309 308 308 308 307 307 306 306 307 307
317 319 320 323 328 330 327 325 327 327 327 329 331 329 325 329 334 328 325 309 315 321 323 323 323 320 316 313 311 312 312 310 309 308 307 307 307 307 307 307 307 307 307
317 320 320 324 330 330 328 328 328 327 328 327 331 327 322 329 333 331 323 311 321 322 323 323 323 321 317 314 312 312 312 310 309 308 309 308 308 308 308 308 308 307 307
320 321 322 327 330 330 328 328 327 326 327 328 331 326 326 330 331 331 318 313 322 322 323 323 323 321 318 315 312 312 315 313 311 311 310 310 309 309 309 309 309 308 308
326 325 324 330 329 331 329 328 327 330 331 328 330 327 330 330 331 327 315 317 322 318 319 321 322 322 319 315 313 312 313 314 312 311 311 311 310 310 310 310 310 309 309
325 325 325 329 329 330 330 329 328 328 331 329 326 325 328 330 331 323 315 318 315 314 315 320 319 321 320 317 314 312 311 310 313 312 311 311 311 311 310 310 310 310 309
324 324 324 326 327 327 328 328 329 329 329 330 329 326 327 328 330 325 321 316 319 314 313 318 317 319 319 316 315 313 311 311 310 311 311 311 311 311 311 311 311 310 310
323 325 326 327 327 329 329 330 330 330 330 330 326 328 326 324 327 327 325 324 320 318 314 316 315 315 315 315 314 313 312 311 312 311 311 311 311 311 310 310 311 311 310

GFSSE_850_thetae_138.txt.gz
Theta_e
341 346 350 349 336 330 330 327 326 324 316 314 313 313 315 321 322 331 337 339 338 339 340 340 341 341 342 341 338 336 334 340 339 338 338 337 338 340 340 341 340 341 341
341 348 351 349 333 333 331 332 329 321 319 325 328 325 317 316 325 335 338 339 341 341 341 340 340 341 343 341 341 337 334 336 340 341 338 337 337 337 336 339 338 338 338
342 349 350 347 331 342 335 335 334 324 337 342 337 327 318 315 325 336 337 341 341 339 340 340 340 341 341 341 337 337 337 336 341 341 341 341 338 336 334 334 336 333 335
341 348 349 344 333 341 345 340 335 324 337 338 338 336 320 316 320 334 337 339 340 338 338 336 336 339 340 340 335 335 335 335 338 340 340 339 340 336 337 336 333 339 328
342 348 349 344 335 337 344 344 336 324 334 336 338 335 329 318 316 329 336 336 336 333 332 332 334 337 336 335 332 331 326 328 335 337 338 340 339 336 337 337 337 335 335
342 346 351 346 339 337 342 344 339 326 335 334 337 333 325 319 316 328 331 332 332 333 331 333 334 336 334 333 328 327 329 336 338 337 336 337 335 336 336 337 337 335 335
341 344 348 347 343 337 341 343 341 329 330 337 336 333 324 321 318 333 333 333 332 333 333 333 333 336 337 338 338 336 336 339 339 340 336 335 333 335 336 337 337 335 336
341 343 349 347 344 342 341 342 343 334 324 334 334 337 328 326 320 327 334 331 330 332 331 334 335 335 336 337 337 334 336 338 338 338 336 334 332 331 334 335 335 333 333
341 342 345 345 345 344 343 341 342 338 328 325 332 337 331 329 324 322 334 331 331 331 331 329 332 335 335 336 336 333 336 336 336 333 335 333 333 332 330 332 333 332 330
342 344 340 341 343 343 342 342 342 341 333 324 334 337 334 330 324 323 324 327 333 332 329 326 330 332 335 336 335 334 332 333 333 331 330 330 331 328 329 328 329 328 330
342 340 341 336 338 342 341 341 342 343 335 328 333 335 336 334 331 325 334 330 327 332 330 325 331 332 333 335 335 333 333 333 330 329 328 328 325 323 320 317 313 311 313
339 338 332 336 336 338 339 340 341 342 339 332 332 333 337 338 336 335 333 328 331 334 332 326 329 329 332 334 334 333 332 330 328 328 328 328 325 324 319 314 312 309 308
340 339 338 338 338 338 337 339 338 337 339 335 334 335 337 338 335 332 334 330 333 333 332 327 324 328 329 329 331 331 329 326 326 326 326 325 323 319 317 312 309 308 307
328 337 339 338 338 339 338 337 337 336 333 335 333 334 337 339 334 331 335 335 334 333 335 329 327 326 326 326 326 327 325 325 325 325 325 323 323 321 318 312 309 306 305
321 327 333 337 336 336 336 336 331 327 332 334 326 323 332 338 336 330 334 336 335 331 330 326 324 325 325 326 325 324 324 325 325 325 324 324 322 319 317 312 308 306 306
321 319 319 329 337 335 334 333 334 331 329 330 328 323 331 332 334 331 331 332 331 329 326 319 322 323 324 324 323 323 324 324 324 324 323 322 322 320 318 312 309 307 308
320 319 319 317 329 333 333 333 330 329 330 331 329 331 329 328 329 333 328 326 328 328 324 323 321 321 322 322 323 323 323 323 323 323 322 322 320 315 313 311 309 308 309
319 319 318 320 319 329 332 329 330 329 328 334 332 330 330 330 331 333 328 322 325 326 324 323 320 321 322 322 322 322 322 321 321 321 321 321 320 317 309 308 308 308 308
319 319 318 318 321 325 329 329 329 326 328 332 331 331 330 329 328 332 330 321 322 322 323 322 321 320 321 321 321 321 320 320 319 319 318 318 316 320 316 307 307 307 308
320 318 318 318 325 328 329 329 326 326 327 332 331 331 331 328 325 332 329 319 312 320 321 323 320 320 320 320 319 319 319 318 318 317 317 317 309 308 316 315 316 309 307
320 318 318 318 323 330 331 329 327 328 328 332 331 332 329 325 326 331 328 319 312 320 322 323 322 321 320 319 318 318 317 316 316 316 315 314 311 311 309 309 314 316 311
321 321 323 325 326 332 332 328 328 327 328 331 332 329 325 324 325 331 327 320 312 321 322 323 323 321 320 318 317 316 316 315 315 314 314 314 313 310 313 312 313 312 310
326 325 324 325 330 332 332 328 327 327 327 327 330 326 324 323 323 330 328 320 313 320 322 323 323 321 319 318 318 316 317 316 315 315 314 313 312 309 310 310 309 309 310
326 329 329 332 329 330 331 329 328 328 328 328 327 327 323 321 326 330 328 313 320 322 322 323 323 323 320 318 317 315 315 315 315 315 314 313 311 312 310 310 310 311 310
324 325 327 325 325 329 330 330 329 328 329 329 329 325 326 327 329 330 327 315 322 321 320 320 321 323 322 320 317 315 313 312 313 314 314 313 311 311 311 311 311 310 311
325 325 325 325 327 327 327 328 329 328 328 328 325 320 322 327 329 328 322 316 321 320 317 318 320 322 322 321 318 317 315 313 313 313 313 313 312 311 311 311 310 310 311

GFSSE_850_thetae_141.txt.gz
Theta_e
347 348 351 349 339 329 328 328 328 327 326 329 318 317 318 329 324 330 338 340 339 340 341 341 342 343 340 337 339 340 338 338 337 337 337 337 337 339 339 340 342 340 339
345 349 350 350 340 330 329 327 326 323 316 315 316 316 316 334 327 337 337 338 340 341 340 341 342 343 341 340 338 337 340 341 341 340 340 339 334 336 336 333 341 341 340
343 349 350 349 340 331 331 331 328 321 324 332 330 320 315 318 334 338 339 341 340 340 341 341 341 342 339 337 337 337 340 338 339 339 339 341 339 336 338 336 328 338 340
343 349 349 349 339 337 333 334 331 328 341 338 334 323 317 317 330 335 340 341 340 339 339 339 340 340 336 335 336 335 339 340 339 338 339 339 339 339 338 335 331 327 336
343 349 349 347 341 340 344 339 334 340 342 339 335 333 318 316 327 333 337 339 338 336 336 336 338 336 334 333 333 330 332 337 338 339 338 337 338 337 337 337 336 332 331
342 350 350 346 337 340 343 343 336 330 337 338 336 332 324 317 324 334 335 336 332 332 331 333 336 334 333 328 326 334 337 337 337 337 336 336 337 338 337 336 336 336 333
342 350 348 348 339 338 341 342 340 328 335 337 337 334 323 318 324 330 332 333 331 332 334 333 336 335 337 332 335 338 338 339 335 336 334 333 334 335 336 335 337 337 333
343 345 345 348 345 339 338 340 342 336 332 336 338 334 324 320 331 334 333 333 332 332 334 333 336 337 338 337 336 338 337 336 335 335 334 332 331 333 333 333 331 335 334
342 343 347 345 347 342 339 341 342 340 330 335 335 336 333 328 328 334 334 331 332 331 332 333 334 336 336 336 335 337 336 334 334 333 334 331 332 331 332 330 330 329 332
344 343 346 344 346 345 343 343 342 341 336 330 332 337 335 337 326 334 334 331 331 331 329 330 334 334 335 335 334 332 333 332 331 330 330 329 331 328 328 325 326 329 325
344 343 344 342 343 344 344 343 341 342 338 331 332 336 337 335 333 332 334 330 334 332 328 327 331 333 335 335 333 333 332 330 329 328 329 329 325 324 322 320 320 319 319
338 342 343 342 341 342 342 343 342 342 341 333 333 336 337 335 336 335 334 328 332 332 327 327 332 332 334 333 333 331 330 329 328 327 328 328 325 324 319 315 316 314 313
338 340 341 342 341 339 340 340 338 338 339 334 335 332 338 337 337 337 334 329 332 334 332 329 330 331 334 332 331 330 328 327 327 327 326 326 324 323 319 311 307 306 307
324 332 340 339 340 340 340 339 339 337 337 336 333 332 334 336 336 335 335 335 335 334 334 331 329 329 329 328 329 328 326 326 326 325 324 324 322 322 318 310 306 306 306
323 324 333 339 339 339 339 339 339 338 336 335 331 326 323 334 333 333 335 335 333 335 330 328 327 326 326 326 327 325 326 326 326 324 324 323 323 321 319 312 308 307 307
322 323 324 327 336 337 336 336 337 336 333 331 331 327 323 323 320 329 334 334 332 332 329 326 325 325 326 326 324 324 325 325 325 324 322 323 322 322 320 315 311 310 310
321 322 322 324 321 333 338 339 336 335 336 335 330 332 327 326 320 331 332 334 333 330 327 324 323 324 324 324 324 324 324 324 324 324 323 320 319 317 311 309 310 310 310
321 321 321 322 323 325 337 336 336 336 336 334 333 331 331 327 327 331 331 333 329 328 325 322 322 323 323 323 323 323 323 323 323 323 322 322 320 314 309 309 309 309 309
322 322 322 322 323 327 332 334 336 333 334 333 327 333 331 328 332 331 330 332 328 327 324 322 322 323 323 323 323 322 322 321 321 321 322 322 321 321 310 309 308 308 309
322 322 322 323 323 328 332 333 333 335 331 331 331 332 333 331 329 332 330 331 327 325 324 322 321 322 322 322 321 321 321 320 319 319 319 319 321 320 317 314 317 308 308
321 321 322 323 323 329 330 333 332 332 332 332 329 330 331 332 331 332 331 328 324 325 325 324 322 321 321 320 320 320 319 319 318 318 317 318 316 317 317 315 318 317 312
322 322 322 323 324 328 329 332 331 331 330 329 331 331 332 332 333 331 330 328 322 324 324 324 322 321 320 319 319 318 318 317 317 316 316 316 316 315 315 315 316 315 314
326 326 326 327 328 329 328 331 331 331 328 329 331 332 331 331 330 326 329 328 322 322 325 324 322 321 320 319 318 318 317 317 316 316 315 315 314 313 313 313 313 313 314
327 327 328 331 329 328 329 329 330 328 328 327 328 330 329 328 324 325 330 324 321 323 324 323 323 321 320 318 318 318 317 317 317 317 315 315 314 313 312 311 311 312 313
328 327 328 329 331 330 331 330 330 329 327 327 327 329 327 326 325 324 330 323 319 320 323 323 324 323 322 320 319 318 316 315 316 316 316 315 314 314 312 311 311 311 311
327 328 326 329 330 328 330 329 329 327 327 327 327 328 326 324 324 325 327 319 318 322 323 324 324 324 323 322 319 319 316 316 314 314 314 316 314 313 311 311 311 311 310

GFSSE_850_thetae_144.txt.gz
Theta_e
348 346 349 346 327 328 330 338 344 338 337 330 321 318 332 324 325 329 339 338 339 340 341 342 342 340 340 337 339 341 339 339 337 337 333 335 334 335 340 341 340 337 336
347 344 349 347 336 328 328 329 332 329 322 317 315 316 338 325 331 335 338 339 338 340 340 342 342 341 337 336 340 338 337 339 340 336 337 336 336 334 333 339 340 339 336
346 348 348 349 340 328 329 328 326 320 317 321 325 318 328 331 334 337 339 341 340 340 341 341 341 336 336 336 338 339 340 340 340 334 338 339 338 335 332 335 337 339 335
345 349 347 348 344 330 330 331 330 324 335 334 327 318 316 333 337 337 341 340 339 339 339 340 340 334 335 336 338 339 338 337 335 335 337 337 338 337 336 337 335 337 338
346 349 344 348 344 334 335 334 333 330 341 337 333 321 316 323 334 337 340 339 337 336 335 337 336 331 333 333 335 337 337 335 336 337 338 338 338 337 336 334 332 334 336
347 351 344 348 345 336 343 340 336 341 342 337 336 333 317 320 333 334 337 337 333 331 333 331 332 332 331 329 334 336 337 337 333 334 336 337 337 336 337 335 333 335 336
344 350 342 347 342 341 342 345 339 332 339 339 335 333 321 318 332 331 333 334 332 331 334 334 332 328 327 333 338 337 333 334 333 332 332 334 335 333 334 335 333 334 336
343 347 347 343 346 338 339 340 342 336 334 338 337 333 324 322 329 330 330 332 332 333 333 335 336 335 335 338 337 336 337 333 333 332 332 333 333 332 332 332 333 333 334
341 346 346 345 343 342 340 339 342 339 337 337 338 334 330 327 333 334 333 331 333 332 333 335 336 337 335 336 335 333 334 333 331 330 330 330 329 331 326 320 322 332 333
344 343 343 346 343 346 341 340 341 341 339 335 336 335 335 325 332 334 333 330 331 330 332 333 335 335 334 335 334 332 331 330 326 326 329 328 329 327 326 325 328 330 329
343 344 344 344 342 344 345 341 342 342 340 337 335 336 337 328 331 333 333 330 330 330 328 332 333 334 333 333 332 330 329 329 324 327 328 328 326 325 324 321 321 322 323
338 341 343 343 341 340 343 344 342 341 341 338 335 334 338 333 330 331 331 331 333 332 327 326 332 334 334 332 330 329 328 328 323 326 327 325 324 324 320 317 317 319 319
331 335 338 340 342 339 339 340 339 341 340 339 337 334 337 335 335 334 334 328 332 333 325 329 331 330 328 330 329 328 327 326 324 325 326 325 323 323 319 316 315 315 312
323 325 333 336 338 341 339 338 338 337 336 335 337 335 333 334 335 334 335 329 330 334 327 328 330 331 333 328 329 327 326 326 322 325 325 322 323 322 319 315 311 307 307
323 323 323 336 337 338 339 339 337 335 334 335 335 331 328 326 328 333 336 333 333 332 330 327 329 328 329 327 327 326 326 324 321 324 323 324 322 320 317 315 313 309 309
322 323 322 323 332 337 340 338 337 335 334 333 334 331 325 326 325 324 326 336 334 333 330 329 326 325 326 326 325 326 325 325 321 321 322 322 321 318 318 315 311 311 311
322 321 322 323 323 328 335 337 336 335 334 334 334 332 323 324 320 322 325 333 333 331 329 326 325 326 326 324 325 325 325 324 321 319 320 318 317 312 312 313 312 311 310
322 322 322 322 322 321 322 333 337 335 334 333 333 332 331 327 325 325 323 329 332 331 330 324 324 326 324 324 324 324 324 323 323 321 317 313 311 310 310 310 310 310 310
322 321 322 322 322 323 324 329 335 335 333 334 333 332 330 331 328 329 323 329 332 329 323 317 321 324 323 323 323 323 323 323 323 322 321 320 317 309 308 309 309 309 310
322 322 322 322 323 323 326 333 332 333 332 332 333 333 328 331 331 327 326 331 331 326 322 321 323 323 323 323 323 322 322 322 321 322 321 321 321 314 310 314 313 308 308
322 321 322 322 322 323 328 331 332 331 330 331 332 331 332 332 332 327 331 331 330 325 323 321 323 323 323 322 321 321 320 319 319 319 318 319 320 318 317 318 317 316 313
324 323 322 321 322 323 328 331 329 329 329 330 331 330 330 331 332 329 332 331 329 326 324 322 322 322 322 321 320 320 319 318 318 318 317 316 315 316 315 316 316 315 313
324 325 325 324 323 324 327 329 328 329 330 330 329 330 329 331 332 331 331 331 327 324 323 322 322 322 320 320 319 317 317 317 317 316 316 316 315 315 315 315 315 313 314
325 326 326 327 325 327 327 327 329 328 329 328 329 331 331 330 332 332 331 330 326 323 323 316 321 321 320 318 316 317 317 317 316 315 315 315 314 313 313 313 311 312 313
325 326 327 327 327 328 326 327 328 328 328 326 326 327 327 330 330 331 328 327 323 321 320 318 322 321 318 318 318 317 317 317 316 316 315 314 314 314 313 312 311 312 312
325 326 325 328 328 328 328 328 329 328 327 326 324 326 329 328 326 328 327 325 324 323 325 324 322 321 320 319 319 318 316 315 315 316 315 315 315 314 314 313 311 311 311

GFSSE_850_thetae_147.txt.gz
Theta_e
348 347 346 332 326 328 334 340 342 342 341 326 317 317 323 326 327 337 339 337 340 340 341 341 339 336 340 340 339 341 339 336 335 334 333 330 337 339 339 336 338 339 338
345 344 346 341 325 328 330 331 334 335 330 323 316 331 325 329 329 338 337 338 340 340 342 342 336 335 338 337 338 340 341 336 338 338 335 331 328 336 338 338 337 339 339
346 344 346 345 329 328 329 328 327 324 320 318 318 335 327 329 332 336 339 339 340 341 341 338 335 336 337 338 339 340 339 334 336 338 338 337 333 332 335 336 337 338 339
346 346 344 346 336 328 329 328 327 321 326 328 321 322 332 330 336 337 341 340 339 340 339 337 334 336 337 338 338 337 336 334 335 336 337 337 335 333 335 336 337 335 338
345 347 344 346 342 330 330 330 328 328 336 330 323 318 330 335 336 339 339 338 338 337 336 334 331 335 336 336 336 336 335 335 336 337 341 338 336 335 335 335 336 335 335
347 346 345 345 345 333 334 334 332 334 337 333 330 323 320 333 334 338 338 336 333 333 331 330 331 332 332 333 335 336 332 334 335 335 337 337 337 337 334 335 336 337 335
346 345 347 343 345 337 342 340 335 342 342 335 333 329 317 328 333 335 336 334 331 333 331 331 330 329 333 336 335 334 333 331 331 333 334 337 336 339 334 335 336 337 337
342 345 347 344 344 342 340 343 343 337 338 339 335 330 319 320 330 332 333 333 332 332 334 332 328 333 337 336 336 334 332 331 330 332 333 331 334 335 333 334 335 335 336
343 344 344 345 343 343 339 340 341 337 336 338 337 332 321 330 329 332 330 333 332 331 334 335 334 337 335 335 335 333 332 329 328 328 327 330 331 331 333 333 332 333 334
343 343 343 342 343 342 342 340 341 341 339 338 337 334 331 333 333 333 333 332 331 332 334 336 335 335 334 332 332 331 330 323 318 327 328 329 329 326 331 331 332 332 330
342 342 343 343 342 341 343 342 340 341 340 339 337 335 334 331 333 334 332 330 331 331 331 334 334 334 333 331 331 329 329 321 325 326 326 327 325 325 324 325 327 329 325
335 339 338 342 344 341 340 341 342 340 341 339 337 337 336 333 334 334 332 330 331 330 328 332 333 333 331 330 329 328 327 321 326 325 326 324 324 324 323 323 320 319 316
324 325 337 340 339 341 339 339 341 339 340 338 337 334 334 330 334 335 333 331 333 331 326 332 333 333 330 329 328 327 327 318 325 325 325 325 323 323 321 318 315 311 310
323 323 324 328 336 337 339 338 338 338 338 338 337 334 333 331 330 333 334 332 333 332 327 330 331 329 329 329 327 326 326 324 324 324 325 325 323 323 321 318 315 310 308
322 322 321 321 321 331 337 339 339 337 337 337 334 332 334 331 329 326 330 332 330 332 328 330 330 331 327 329 327 326 325 319 320 324 324 325 323 322 322 320 318 316 314
322 322 323 322 322 322 331 335 334 334 335 334 333 333 333 329 326 322 326 333 331 332 328 328 329 329 327 327 326 326 324 321 316 321 323 322 323 324 322 321 319 316 313
321 322 322 322 323 322 324 330 335 333 334 333 333 331 330 325 319 326 321 325 332 332 330 328 324 326 325 325 325 325 324 322 316 318 319 320 321 321 319 319 317 312 311
322 322 321 322 323 323 322 323 330 335 331 331 332 329 327 324 326 320 322 327 329 333 327 328 324 326 325 325 325 324 324 321 315 315 314 312 312 312 315 313 311 310 310
322 322 321 322 322 323 323 322 327 333 332 332 332 330 330 325 325 328 325 324 327 330 328 325 326 326 324 325 324 324 323 323 321 318 313 310 309 309 309 309 309 309 310
321 320 321 322 322 321 323 323 325 331 331 331 331 332 332 331 330 328 327 326 326 329 326 325 325 324 324 324 324 324 323 322 322 321 320 319 312 308 309 312 309 308 309
319 321 321 321 321 321 322 325 327 330 330 329 331 332 332 331 329 330 326 324 327 329 323 322 324 324 323 323 323 322 322 322 322 321 321 320 318 312 316 316 316 314 311
322 323 322 321 321 321 323 326 326 328 328 328 330 330 331 330 331 330 330 325 329 324 321 322 322 323 323 323 322 321 319 319 320 318 318 318 316 315 315 316 316 315 312
324 324 324 323 321 321 323 324 326 327 328 328 329 329 329 328 330 330 331 326 330 324 322 323 323 323 322 322 321 320 318 318 318 318 317 316 315 315 316 315 316 315 312
324 325 324 325 323 323 323 326 327 327 327 328 328 328 326 330 329 330 331 329 330 325 323 321 323 323 322 321 320 318 315 317 317 317 316 316 315 315 315 315 314 312 313
323 325 325 325 325 326 325 327 326 328 327 327 327 325 328 327 328 331 332 330 326 324 324 321 322 321 320 320 320 315 317 316 316 315 315 315 314 313 313 313 313 311 312
324 325 325 325 326 327 327 327 327 327 327 327 325 328 327 328 332 329 331 331 328 325 323 321 319 320 318 319 316 317 316 316 316 315 315 315 314 313 313 313 312 311 312

GFSSE_850_thetae_150.txt.gz
Theta_e
347 348 341 324 330 338 336 340 342 337 329 323 323 331 332 329 324 339 335 339 340 341 340 339 340 340 342 342 341 338 335 331 330 329 334 337 338 337 338 339 338 324 322
346 347 345 327 328 334 335 338 341 331 323 320 320 325 331 324 335 338 337 339 340 341 339 339 339 341 340 339 341 337 337 336 334 330 329 335 336 337 337 338 339 337 332
347 345 346 335 327 331 333 334 331 326 320 318 325 338 326 328 336 337 338 339 340 341 335 335 337 337 341 339 339 336 333 334 336 335 332 335 335 336 337 337 338 337 336
347 345 345 343 327 329 331 330 328 322 320 323 322 327 324 336 333 339 340 339 340 340 334 335 336 337 338 338 338 335 334 335 336 336 332 333 336 336 337 336 337 337 337
345 345 343 345 334 328 329 328 327 322 329 325 318 329 334 333 334 339 340 340 339 338 333 333 336 336 335 335 335 335 335 334 334 335 337 337 337 336 336 336 336 337 337
344 345 345 344 342 329 329 330 327 332 333 328 322 318 335 335 334 339 338 337 335 334 329 332 335 334 334 336 333 333 334 334 333 333 333 335 335 336 337 337 336 336 337
343 345 346 343 345 333 332 332 331 335 334 331 328 320 324 332 331 337 336 333 332 330 329 332 334 333 333 335 333 330 331 330 329 332 333 331 332 336 336 336 337 336 336
341 343 346 344 344 341 337 338 335 343 340 334 331 326 317 328 331 333 333 333 334 332 330 331 332 334 335 333 332 331 329 328 331 327 329 331 331 334 335 336 336 335 335
343 347 345 345 345 343 340 340 342 342 341 338 334 328 318 331 330 330 330 332 334 334 330 332 335 336 336 334 333 331 328 326 327 327 329 330 331 332 331 333 333 334 331
341 343 344 343 343 342 342 340 340 339 339 339 337 330 323 330 330 332 330 332 333 333 334 334 336 335 335 333 331 330 326 319 319 327 328 329 330 330 331 331 330 329 332
342 341 341 342 342 342 341 340 340 340 339 339 338 334 328 334 334 333 333 331 331 333 335 336 335 333 332 330 329 328 326 314 320 328 328 327 326 328 330 331 328 331 331
335 340 338 338 342 341 341 341 341 340 340 339 338 335 332 333 334 334 332 331 331 331 333 335 333 332 331 330 328 327 324 316 323 325 326 327 328 326 325 324 322 319 317
331 326 328 336 339 339 340 338 339 339 340 339 338 336 334 332 333 333 332 330 331 330 332 333 332 331 329 328 327 324 322 317 324 324 325 326 324 324 323 323 322 319 316
323 323 323 322 331 338 339 338 338 336 338 339 338 336 335 330 330 329 329 330 332 331 329 332 332 331 329 328 326 326 325 315 323 325 325 325 322 323 322 322 322 319 315
322 322 322 321 321 321 326 336 338 338 336 336 337 337 336 331 328 325 324 331 333 332 329 332 331 330 329 328 326 325 324 318 321 323 325 325 322 322 322 322 320 318 314
322 322 322 322 322 322 323 324 330 335 335 334 335 335 332 330 329 327 324 328 330 331 330 330 328 331 329 328 326 324 323 314 318 324 325 324 325 323 326 322 320 316 313
322 321 322 322 322 322 322 322 322 327 330 333 333 332 330 330 326 328 324 323 328 331 329 329 329 330 328 327 326 324 322 314 316 322 323 324 324 323 322 319 317 315 313
321 321 321 321 322 322 322 322 321 323 330 330 331 331 331 329 325 324 324 321 329 329 330 329 327 326 326 326 325 324 323 315 315 318 320 320 320 320 319 316 316 313 312
322 322 321 321 322 322 322 322 322 321 326 328 329 329 330 328 322 323 325 322 325 325 330 328 325 327 325 325 325 324 322 315 314 314 315 314 314 313 311 312 310 310 312
322 321 320 321 322 321 321 322 322 321 325 328 329 328 329 326 324 322 323 325 325 325 324 326 324 325 325 325 324 323 322 319 314 312 310 310 310 309 309 309 309 309 309
319 320 319 320 320 321 321 322 322 322 325 329 329 327 328 327 323 323 324 324 326 326 326 326 324 325 325 324 323 322 322 321 320 319 318 315 309 312 315 315 313 312 309
319 320 321 322 321 321 321 321 322 323 326 328 329 329 329 329 329 330 329 327 325 327 328 325 323 324 324 324 323 322 322 321 321 321 320 319 315 315 316 316 315 314 311
321 323 324 322 322 322 321 321 322 325 327 327 328 328 328 329 330 329 328 329 324 324 328 326 324 324 323 323 323 322 322 321 321 321 320 317 316 315 316 316 315 315 312
323 324 324 324 324 321 321 322 323 325 325 325 327 328 328 329 328 327 329 329 328 324 329 322 323 324 323 322 322 321 318 319 320 321 320 317 316 315 315 315 315 314 312
323 324 324 324 323 321 322 323 323 325 326 327 327 328 328 328 327 329 330 331 327 326 323 321 322 323 323 323 322 321 317 317 318 318 318 316 316 316 315 314 314 313 311
323 324 324 324 324 325 324 325 326 326 326 327 327 327 327 326 325 329 328 330 328 329 322 322 323 323 323 322 322 319 317 316 317 316 315 316 316 315 314 314 313 312 311